     2              OBSERVATION DATA    GPS                 RINEX VERSION / TYPE
teqc 2000Feb29 Duncan Agnew 20000707 21:03:20UTC            PGM / RUN BY / DATE
                                                            COMMENT
L2: 1 -> 1; 5 -> 5; 60 -> 9                                 COMMENT
L2: 1 -> 1; 5 -> 5; 60 -> 9                                 COMMENT
L2: 1 -> 1; 5 -> 5; 60 -> 9                                 COMMENT
L2: 1 -> 1; 5 -> 5; 60 -> 9                                 COMMENT
L2: 1 -> 1; 5 -> 5; 60 -> 9                                 COMMENT
Original Marker Name: 6491                                  COMMENT
Campaign Name: USMC MCAGCC                                  COMMENT
4-Character Station Name: LLLY                              COMMENT
6-Character Antenna Code: TRMSST                            COMMENT
Vertical Measurement Point: BGP                             COMMENT
Vertical Offset to Rinex Ref. Point: 0.0597                 COMMENT
Radial Measurement Point: NGP                               COMMENT
Radial Offset to Rinex Ref. Point: 0.2334                   COMMENT
Antenna Height from Field Measurement: 1.5010 m             COMMENT
Additional Antenna Identification Info.:                    COMMENT
Model 14532.00                                              COMMENT
Original XYZ: -2299392.7440 -4731938.5508 3594056.3518      COMMENT
New XYZ position is based on association with SCEC monument COMMENT
E1F2L2J7+0011. Position of that monument is believed to be  COMMENT
valid to within 1 m horizontally; vertical accuracy         COMMENT
should be no worse than 3-times this value.                 COMMENT
                                                            COMMENT
Revised Rinex header created by UCSD GPS archive for        COMMENT
GSAC on 18-Sep-2001 (2001:261) 21:14:29 GMT                 COMMENT
For assistance contact dagnew@ucsd.edu                      COMMENT
or anderson@python.ucsd.edu                                 COMMENT
                                                            COMMENT
LOOSE LIPS LARRY                                            MARKER NAME
____0001                                                    MARKER NUMBER
-Unknown- 11TH ARTILLERY US MARINE CORPS                    OBSERVER / AGENCY
16491 TRIMBLE MSGR NP 7.57; SP 3.53                         REC # / TYPE / VERS
S/N UNKNOWN TR 4000SST L1/L2 GEO                            ANT # / TYPE
 -2299393.9364 -4731935.4341  3594057.8365                  APPROX POSITION XYZ
        1.4230        0.0000        0.0000                  ANTENNA: DELTA H/E/N
     1     1     0                                          WAVELENGTH FACT L1/2
     6    L1    L2    P1    P2    S1    S2                  # / TYPES OF OBSERV
     0                                                      INTERVAL
  1999     3     2     3     0   15.000000                  TIME OF FIRST OBS
  1999     3     2     4     0    0.000000                  TIME OF LAST OBS
                                                            END OF HEADER
 99  3  2  3  0 15.0000000  0  5G 6G30G10G26G17
  11122642.65516   8666996.28616  20345151.102    20345157.559          19.500
        18.750
  16597798.91316  12907370.96116  22554138.359    22554145.320          12.750
        14.500
  27902465.46115  21742182.74015  23433415.586    23433422.922           9.250
         9.500
   2166071.95715   1684195.20415  22846260.609    22846267.938           9.500
        10.250
   7559088.30616   5887329.36016  21792331.742    21792339.152          15.750
        19.000
 99  3  2  3  0 30.0000000  0  5G 6G30G10G26G17
  11174049.218 6   8707053.358 6  20354933.391    20354939.855          19.500
        18.750
  16699903.396 6  12986932.893 6  22573568.148    22573575.297          12.750
        14.500
  28007116.618 5  21823729.094 5  23453329.805    23453337.516           9.250
         9.500
   2186309.113 5   1699964.457 5  22850111.563    22850118.859           9.250
        10.000
   7593186.564 6   5913899.450 6  21798820.344    21798827.801          16.000
        19.250
 99  3  2  3  0 45.0000000  4  1
0.000                                                       COMMENT
 99  3  2  3  0 45.0000000  0  5G 6G30G10G26G17
  11225569.755 6   8747199.249 6  20364737.469    20364743.906          19.500
        18.750
  16802075.790 6  13066547.745 6  22593010.844    22593018.055          12.750
        14.500
  28111821.570 5  21905317.364 5  23473254.773    23473261.895           9.250
         9.500
   2206625.557 5   1715795.490 5  22853977.688    22853985.074           9.250
        10.000
   7627334.353 6   5940508.132 6  21805318.492    21805325.984          15.750
        19.250
 99  3  2  3  1  0.0000000  4  1
1.501                                                       COMMENT
 99  3  2  3  1  0.0000000  0  5G 6G30G10G26G17
  11277204.004 6   8787433.743 6  20374563.109    20374569.527          19.500
        18.750
  16904314.529 6  13146214.294 6  22612466.289    22612473.371          12.750
        14.500
  28216587.496 5  21986953.135 5  23493190.992    23493198.316           9.250
         9.500
   2227020.257 5   1731687.496 5  22857858.555    22857865.930           9.500
        10.000
   7661535.296 6   5967158.237 6  21811826.711    21811834.238          16.000
        19.250
 99  3  2  3  1 15.0000000  0  5G 6G30G10G26G17
  11328951.830 6   8827756.735 6  20384410.438    20384416.836          19.750
        18.750
  17006620.037 6  13225932.864 6  22631934.500    22631941.477          12.750
        14.250
  28321415.214 5  22068637.065 5  23513138.984    23513146.293           9.500
         9.500
   2247489.309 5   1747637.445 5  22861753.523    22861760.906           9.500
        10.000
   7695789.976 6   5993850.212 6  21818345.008    21818352.559          15.750
        19.000
 99  3  2  3  1 30.0000000  0  5G 6G30G10G26G17
  11380814.309 6   8868169.078 6  20394279.477    20394285.836          19.750
        18.500
  17108995.279 6  13305705.771 6  22651415.852    22651422.766          12.750
        14.000
  28426305.885 5  22150370.040 5  23533099.039    23533106.320           9.500
         9.750
   2268035.389 5   1763647.411 5  22865663.422    22865670.633           9.250
        10.000
   7730099.065 6   6020584.590 6  21824873.828    21824881.191          16.000
        18.750
 99  3  2  3  1 45.0000000  0  5G 6G30G10G26G17
  11432787.741 6   8908667.875 6  20404169.695    20404176.113          19.750
        18.500
  17211437.807 6  13385531.109 6  22670909.852    22670916.977          12.750
        14.000
  28531257.603 5  22232150.599 5  23553070.602    23553077.969           9.500
         9.500
   2288659.932 5   1779718.527 5  22869588.094    22869595.570           9.500
        10.000
   7764458.394 6   6047358.112 6  21831412.289    21831419.559          16.000
        18.750
 99  3  2  3  2  0.0000000  0  5G 6G30G10G26G17
  11484871.660 6   8949252.751 6  20414080.883    20414087.313          19.500
        18.750
  17313948.976 6  13465409.928 6  22690417.078    22690424.305          12.500
        14.250
  28636269.154 5  22313977.763 5  23573053.641    23573061.074           9.250
         9.500
   2309362.389 5   1795850.346 5  22873527.797    22873535.078          10.000
        10.000
   7798866.182 6   6074169.395 6  21837959.813    21837967.250          16.000
        19.000
 99  3  2  3  2 15.0000000  0  5G 6G30G10G26G17
  11537064.830 6   8989922.775 6  20424012.938    20424019.238          19.750
        18.500
  17416527.727 6  13545341.411 6  22709937.375    22709944.383          12.500
        14.250
  28741337.735 5  22395849.381 5  23593047.719    23593055.027           9.250
         9.250
   2330142.669 5   1812042.818 5  22877482.133    22877489.238          10.000
        10.000
   7833322.818 6   6101018.743 6  21844516.688    21844523.883          16.000
        18.500
 99  3  2  3  2 30.0000000  0  5G 6G30G10G26G17
  11589374.135 7   9030683.278 6  20433967.078    20433973.402          20.000
        18.500
  17519179.756 6  13625329.985 6  22729471.320    22729478.445          12.500
        14.000
  28846466.441 5  22477767.843 5  23613052.875    23613060.383           9.250
         9.500
   2351010.595 5   1828303.551 5  22881452.961    22881460.117          10.000
        10.000
   7867835.254 6   6127911.577 6  21851084.164    21851091.414          16.000
        18.500
 99  3  2  3  2 45.0000000  0  5G 6G30G10G26G17
  11641800.157 7   9071534.740 6  20443943.297    20443949.602          20.000
        18.500
  17621897.869 6  13705370.048 6  22749017.906    22749025.094          12.250
        14.000
  28951649.269 5  22559728.471 5  23633068.602    23633075.840           9.250
         9.250
   2371968.152 5   1844634.172 5  22885441.188    22885448.254           9.500
        10.000
   7902399.732 6   6154844.961 6  21857661.461    21857668.816          16.000
        18.500
 99  3  2  3  3  0.0000000  0  5G 6G30G10G26G17
  11694347.019 7   9112480.363 6  20453942.742    20453948.973          20.000
        18.500
  17724681.752 6  13785461.367 6  22768576.930    22768584.184          12.250
        14.000
  29056886.413 5  22641731.430 5  23653094.547    23653101.941           9.500
         9.250
   2393019.026 5   1861037.482 5  22889446.977    22889454.223           9.750
        10.250
   7937019.531 6   6181821.458 6  21864249.453    21864256.691          16.250
        18.500
 99  3  2  3  3 15.0000000  0  5G 6G30G10G26G17
  11747011.195 7   9153517.394 6  20463964.430    20463970.695          20.250
        18.500
  17827527.990 6  13865601.283 6  22788147.891    22788155.207          12.250
        14.000
  29162169.829 5  22723770.455 5  23673129.320    23673136.879           9.500
         9.250
   2414158.887 5   1877510.127 5  22893469.586    22893476.891           9.750
        10.000
   7971689.217 6   6208836.816 6  21870846.875    21870854.035          16.000
        18.500
 99  3  2  3  3 30.0000000  0  5G 6G30G10G26G17
  11799795.561 7   9194648.085 6  20474008.969    20474015.227          20.250
        18.500
  17930438.987 6  13945791.659 6  22807731.336    22807738.539          12.250
        13.750
  29267499.044 5  22805845.161 5  23693172.961    23693180.238           9.500
         9.250
   2435394.413 5   1894057.325 5  22897510.461    22897517.660          10.000
        10.000
   8006409.225 6   6235891.396 6  21877453.773    21877461.023          16.000
        18.500
 99  3  2  3  3 45.0000000  0  5G 6G30G10G26G17
  11852702.674 7   9235874.416 6  20484076.813    20484083.004          20.250
        18.500
  18033413.682 5  14026031.666 6  22827326.773    22827333.898          11.750
        13.500
  29372878.290 5  22887958.832 5  23713225.836    23713233.254           9.500
         9.250
   2456729.720 5   1910682.273 5  22901570.688    22901577.758          10.000
        10.000
   8041181.742 6   6262986.891 6  21884070.766    21884077.969          16.250
        18.500
 99  3  2  3  4  0.0000000  0  5G 6G30G10G26G17
  11905726.534 7   9277191.719 6  20494166.953    20494173.117          20.250
        18.500
  18136445.549 5  14106316.226 6  22846933.148    22846940.371          11.750
        13.500
  29478300.976 5  22970106.379 5  23733287.266    23733294.398           9.500
         9.000
   2478157.423 5   1927379.211 5  22905648.211    22905655.367          10.000
        10.000
   8076002.638 6   6290120.077 6  21890697.156    21890704.223          16.250
        18.500
 99  3  2  3  4 15.0000000  0  5G 6G30G10G26G17
  11958870.394 7   9318602.534 6  20504279.852    20504286.066          20.250
        18.500
  18239539.429 5  14186649.101 6  22866551.047    22866558.355          11.750
        13.250
  29583770.563 5  23052290.459 5  23753357.352    23753364.809           9.500
         9.250
   2499683.545 5   1944152.848 5  22909744.445    22909751.625          10.000
        10.000
   8110877.252 6   6317295.134 6  21897333.484    21897340.605          16.250
        18.750
 99  3  2  3  4 30.0000000  0  5G 6G30G10G26G17
  12012134.565 7   9360107.094 6  20514415.570    20514421.789          20.250
        18.500
  18342694.071 5  14267029.331 6  22886180.805    22886188.121          11.750
        13.250
  29689285.169 5  23134509.619 5  23773436.156    23773443.543           9.500
         9.000
   2521308.899 5   1961003.811 5  22913859.523    22913866.723           9.750
        10.000
   8145807.220 6   6344513.318 6  21903980.375    21903987.441          16.250
        18.750
 99  3  2  3  4 45.0000000  0  5G 6G30G10G26G17
  12065522.523 7   9401708.105 6  20524575.125    20524581.320          20.250
        18.500
  18445909.641 5  14347457.036 6  22905822.133    22905829.348          11.500
        13.250
  29794849.834 5  23216767.787 5  23793524.547    23793531.707           9.500
         9.000
   2543036.275 5   1977934.268 5  22917994.227    22918001.258          10.000
        10.000
   8180791.729 6   6371774.004 6  21910637.688    21910644.914          16.500
        18.750
 99  3  2  3  5  0.0010000  0  5G 6G30G10G26G17
  12119035.483 7   9443406.527 6  20534758.286    20534764.450          20.250
        18.500
  18549195.380 5  14427939.418 6  22925476.747    22925483.974          11.500
        13.250
  29900476.880 5  23299074.579 5  23813624.685    23813632.138           9.250
         9.000
   2564865.542 5   1994944.123 5  22922148.036    22922155.368          10.000
        10.000
   8215836.101 6   6399081.326 6  21917306.458    21917313.665          16.250
        18.750
 99  3  2  3  5 15.0010000  0  5G 6G30G10G26G17
  12172655.080 7   9485188.043 6  20544961.755    20544967.931          20.500
        18.500
  18652534.648 5  14508463.521 6  22945141.505    22945148.837          11.250
        13.250
  30006146.712 5  23381414.697 5  23833732.872    23833740.274           9.250
         8.750
   2586789.092 5   2012027.440 5  22926319.966    22926326.989          10.000
         9.750
   8250931.717 6   6426428.581 6  21923984.872    21923992.032          16.250
        18.750
 99  3  2  3  5 30.0010000  0  5G 6G30G10G26G17
  12226383.714 7   9527054.523 6  20555185.935    20555191.981          20.500
        18.500
  18755932.179 5  14589033.012 6  22964817.388    22964824.536          11.250
        13.000
  30111864.692 5  23463792.335 5  23853850.239    23853857.571           9.250
         8.750
   2608812.009 5   2029188.183 5  22930510.708    22930517.899          10.000
        10.000
   8286080.056 6   6453816.932 6  21930673.333    21930680.474          16.250
        18.750
 99  3  2  3  5 45.0010000  0  5G 6G30G10G26G17
  12280223.572 7   9569007.662 6  20565431.216    20565437.403          20.500
        18.500
  18859388.016 5  14669647.934 6  22984504.325    22984511.724          11.250
        13.000
  30217631.936 5  23546208.364 5  23873977.231    23873984.528           9.250
         8.750
   2630935.195 5   2046427.066 5  22934720.614    22934727.552          10.000
        10.000
   8321284.561 6   6481249.041 6  21937372.349    21937379.583          16.250
        18.750
 99  3  2  3  6  0.0010000  0  5G 6G30G10G26G17
  12334178.882 7   9611050.771 6  20575698.700    20575704.892          20.500
        18.500
  18962906.768 5  14750311.883 6  23004203.403    23004210.696          11.250
        13.250
  30323448.371 5  23628662.712 5  23894113.497    23894120.735           9.250
         8.500
   2653159.010 5   2063744.363 5  22938949.599    22938956.556           9.750
        10.000
   8356549.924 6   6508728.558 6  21944083.185    21944090.372          16.250
        18.750
 99  3  2  3  6 15.0010000  0  5G 6G30G10G26G17
  12388245.608 7   9653180.696 6  20585987.278    20585993.442          20.500
        18.500
  19066485.887 5  14831022.874 6  23023913.833    23023921.001          11.250
        13.000
  30429308.793 5  23711151.348 5  23914257.981    23914265.282           9.250
         8.500
   2675479.832 5   2081137.249 5  22943197.067    22943204.060           9.750
        10.000
   8391872.285 6   6536252.502 6  21950804.810    21950811.919          16.000
        18.750
 99  3  2  3  6 30.0010000  0  5G 6G30G10G26G17
  12442426.712 7   9695399.746 6  20596297.606    20596303.751          20.500
        18.500
  19170124.967 5  14911780.586 6  23043635.817    23043642.876          11.250
        13.000
  30535210.278 5  23793671.988 5  23934410.458    23934417.544           9.000
         8.250
   2697896.032 5   2098604.451 5  22947462.786    22947469.833           9.750
        10.000
   8427251.739 6   6563820.935 6  21957537.161    21957544.251          16.000
        18.750
 99  3  2  3  6 45.0010000  0  5G 6G30G10G26G17
  12496721.541 7   9737707.409 6  20606629.521    20606635.810          20.500
        18.500
  19273821.542 5  14992583.099 6  23063368.685    23063375.813          11.000
        13.000
  30641152.622 5  23876224.451 5  23954570.403    23954577.903           9.000
         8.250
   2720405.807 5   2116144.557 5  22951746.052    22951753.282           9.750
        10.000
   8462685.008 6   6591431.297 6  21964279.903    21964287.149          16.000
        18.750
 99  3  2  3  7  0.0010000  0  5G 6G30G10G26G17
  12551127.846 7   9780101.939 6  20616982.661    20616988.767          20.500
        18.500
  19377577.268 5  15073431.713 6  23083112.755    23083119.935          11.000
        13.000
  30747134.655 5  23958807.843 5  23974738.161    23974745.692           9.000
         8.250
   2743008.101 5   2133756.782 5  22956047.153    22956054.333           9.750
        10.000
   8498170.050 6   6619081.999 6  21971032.552    21971039.743          16.000
        18.750
 99  3  2  3  7 15.0010000  0  5G 6G30G10G26G17
  12605646.891 7   9822584.320 6  20627357.208    20627363.438          20.500
        18.500
  19481394.310 5  15154328.096 6  23102868.364    23102875.603          11.250
        13.000
  30853157.344 5  24041422.913 5  23994913.646    23994921.188           8.750
         8.000
   2765704.719 5   2151442.494 5  22960366.067    22960373.200           9.750
        10.000
   8533708.783 6   6646774.542 6  21977795.286    21977802.345          16.000
        18.750
 99  3  2  3  7 30.0010000  0  5G 6G30G10G26G17
  12660282.571 7   9865157.584 6  20637754.021    20637760.243          20.500
        18.500
  19585270.052 5  15235270.223 6  23122635.450    23122642.603          11.000
        13.000
  30959216.856 5  24124066.676 5  24015096.263    24015103.708           8.750
         8.000
   2788493.928 5   2169200.349 5  22964702.786    22964709.997           9.750
        10.000
   8569294.895 6   6674504.007 6  21984567.052    21984574.271          16.000
        18.750
 99  3  2  3  7 45.0010000  0  5G 6G30G10G26G17
  12715044.403 7   9907829.142 6  20648174.903    20648181.048          20.250
        18.500
  19689208.780 5  15316261.422 6  23142414.200    23142421.462          11.000
        13.000
  31065318.192 5  24206743.038 5  24035286.505    24035294.060           8.750
         8.000
   2811376.169 5   2187030.700 5  22969057.130    22969064.146           9.750
        10.000
   8604932.790 6   6702273.813 6  21991348.638    21991355.790          16.000
        18.750
 99  3  2  3  8  0.0010000  0  5G 6G30G10G26G17
  12769928.331 7   9950595.852 6  20658618.911    20658625.009          20.250
        18.500
  19793207.618 5  15397299.465 6  23162204.653    23162211.821          11.000
        13.000
  31171457.892 5  24289449.280 5  24055484.067    24055491.536           8.750
         8.000
   2834347.225 5   2204930.265 5  22973428.060    22973435.161           9.500
        10.000
   8640620.061 6   6730082.096 6  21998139.653    21998146.806          16.000
        18.750
 99  3  2  3  8 15.0010000  0  5G 6G30G10G26G17
  12824929.781 7   9993454.123 6  20669085.349    20669091.571          20.500
        18.500
  19897263.785 5  15478382.175 6  23182005.942    23182013.157          11.000
        13.000
  31277633.867 5  24372183.796 5  24075688.935    24075696.134           8.750
         7.750
   2857407.117 5   2222899.039 5  22977816.286    22977823.286           9.750
        10.250
   8676351.518 6   6757924.814 6  22004939.216    22004946.298          16.000
        18.750
 99  3  2  3  8 30.0010000  0  5G 6G30G10G26G17
  12880047.534 7  10036403.031 6  20679573.903    20679580.099          20.250
        18.500
  20001377.410 5  15559509.667 6  23201818.028    23201825.431          10.750
        13.000
  31383848.788 5  24454948.661 5  24095901.060    24095908.442           9.000
         8.000
   2880558.964 5   2240939.478 5  22982221.911    22982228.919           9.750
        10.500
   8712125.608 6   6785800.744 6  22011746.739    22011753.853          16.000
        18.750
 99  3  2  3  8 45.0010000  0  5G 6G30G10G26G17
  12935280.466 7  10079441.683 6  20690084.458    20690090.614          20.500
        18.500
  20105547.754 5  15640681.343 6  23221640.989    23221648.212          10.750
        13.000
  31490103.165 5  24537744.264 5  24116120.450    24116127.735           9.000
         7.750
   2903803.623 5   2259052.232 5  22986645.224    22986652.271           9.750
        10.500
   8747938.865 6   6813707.205 6  22018561.794    22018568.884          16.000
        18.750
 99  3  2  3  9  0.0010000  0  5G 6G30G10G26G17
  12990629.920 7  10122571.134 6  20700617.106    20700623.333          20.250
        18.250
  20209775.261 5  15721897.569 6  23241474.778    23241482.165          10.750
        13.000
  31596401.736 5  24620574.305 5  24136348.466    24136355.813           9.000
         7.750
   2927142.718 5   2277238.571 5  22991086.419    22991093.642           9.750
        10.500
   8783791.892 6   6841644.646 6  22025384.396    22025391.552          16.000
        18.750
 99  3  2  3  9 15.0010000  0  5G 6G30G10G26G17
  13046100.666 7  10165795.093 6  20711172.849    20711179.063          20.500
        18.500
  20314061.500 5  15803159.553 6  23261319.700    23261327.087          10.750
        13.000
  31702744.121 5  24703438.477 5  24156584.771    24156592.091           9.000
         7.750
   2950578.009 5   2295499.872 5  22995546.052    22995553.071           9.750
        10.500
   8819689.120 6   6869616.525 6  22032215.396    22032222.481          16.000
        18.750
 99  3  2  3  9 30.0010000  0  5G 6G30G10G26G17
  13101691.228 7  10209112.415 6  20721751.294    20721757.474          20.500
        18.250
  20418401.086 5  15884463.117 6  23281174.810    23281182.192          10.750
        12.750
  31809125.151 5  24786332.783 5  24176828.567    24176835.790           9.000
         7.750
   2974110.400 5   2313836.839 5  23000023.864    23000031.048           9.750
        10.750
   8855628.595 6   6897621.334 6  22039054.200    22039061.356          16.000
        18.750
 99  3  2  3  9 45.0010000  0  5G 6G30G10G26G17
  13157399.225 7  10252521.248 6  20732352.224    20732358.411          20.500
        18.500
  20522791.349 5  15965806.171 6  23301039.700    23301047.114          10.500
        12.750
  31915540.950 5  24869254.177 5  24197078.724    24197086.071           9.000
         7.750
   2997738.784 5   2332248.601 5  23004520.271    23004527.493           9.750
        10.500
   8891611.818 6   6925660.226 6  22045901.747    22045908.841          16.000
        18.750
 99  3  2  3 10  0.0010000  0  5G 6G30G10G26G17
  13213221.607 7  10296019.212 6  20742974.935    20742981.114          20.500
        18.500
  20627233.266 5  16047189.462 6  23320914.458    23320921.685          10.750
        12.750
  32021995.630 5  24952205.870 5  24217336.450    24217343.872           9.000
         7.750
   3021468.189 5   2350739.075 5  23009035.794    23009042.888           9.750
        10.500
   8927645.027 6   6953738.077 6  22052758.614    22052765.692          16.000
        18.750
 99  3  2  3 10 15.0010000  0  5G 6G30G10G26G17
  13269160.063 7  10339607.623 6  20753619.716    20753625.896          20.500
        18.500
  20731729.110 5  16128614.785 6  23340799.247    23340806.700          10.500
        12.750
  32128491.304 5  25035189.489 5  24237601.950    24237609.173           9.000
         7.750
   3045303.300 5   2369311.918 5  23013571.763    23013578.661          10.000
        10.750
   8963727.068 6   6981853.967 6  22059624.864    22059632.063          16.000
        19.000
 99  3  2  3 10 30.0010000  0  5G 6G30G10G26G17
  13325217.477 7  10383288.735 6  20764287.036    20764293.196          20.750
        18.500
  20836278.775 5  16210082.043 6  23360694.489    23360701.763          10.500
        12.750
  32235029.213 5  25118206.025 5  24257875.466    24257882.989           9.000
         7.750
   3069241.473 5   2387965.075 5  23018127.177    23018133.993          10.250
        10.750
   8999858.135 6   7010008.058 6  22066500.294    22066507.478          16.000
        19.000
 99  3  2  3 10 45.0010000  0  5G 6G30G10G26G17
  13381400.882 7  10427068.016 6  20774978.356    20774984.513          20.750
        18.500
  20940886.259 5  16291594.353 6  23380600.591    23380607.954          10.500
        12.750
  32341611.573 5  25201257.213 5  24278157.380    24278164.571           8.750
         7.500
   3093284.811 5   2406700.175 5  23022702.185    23022709.212          10.250
        11.000
   9036046.500 6   7038206.801 6  22073386.833    22073393.923          16.250
        19.250
 99  3  2  3 11  0.0010000  0  5G 6G30G10G26G17
  13437709.779 7  10470945.082 6  20785693.606    20785699.716          20.750
        18.500
  21045549.577 5  16373150.165 6  23400517.169    23400524.728          10.250
        12.750
  32448235.874 5  25284341.062 5  24298447.403    24298454.755           8.750
         7.500
   3117430.811 5   2425515.265 5  23027297.013    23027303.931          10.250
        11.000
   9072293.846 6   7066451.509 6  22080284.411    22080291.591          16.250
        19.250
 99  3  2  3 11 15.0010000  0  5G 6G30G10G26G17
  13494142.179 7  10514918.386 6  20796432.333    20796438.431          20.750
        18.500
  21150265.471 5  16454746.952 6  23420444.122    23420451.493          10.250
        12.500
  32554898.160 5  25367454.529 5  24318744.372    24318751.872           8.750
         7.250
   3141679.736 5   2444410.554 5  23031911.255    23031918.188          10.250
        11.000
   9108602.115 6   7094743.686 6  22087193.630    22087200.771          16.250
        19.250
 99  3  2  3 11 30.0010000  0  5G 6G30G10G26G17
  13550696.581 7  10558986.758 6  20807194.192    20807200.356          20.750
        18.500
  21255035.493 5  16536385.920 6  23440381.208    23440388.810          10.250
        12.250
  32661599.657 5  25450598.557 5  24339048.966    24339056.478           8.500
         7.250
   3166037.264 5   2463390.477 5  23036546.325    23036553.313          10.500
        11.500
   9144972.951 6   7123084.618 6  22094114.708    22094121.931          16.250
        19.250
 99  3  2  3 11 45.0010000  0  5G 6G30G10G26G17
  13607370.726 7  10603148.433 6  20817978.942    20817985.122          20.500
        18.500
  21359857.790 5  16618065.611 6  23460328.255    23460335.567          10.000
        12.250
  32768342.320 5  25533774.643 5  24359361.403    24359368.989           8.250
         7.000
   3190499.873 5   2482452.272 5  23041201.614    23041208.493          10.500
        11.500
   9181405.534 6   7151473.656 6  22101047.646    22101054.806          16.500
        19.250
 99  3  2  3 12  0.0020000  0  5G 6G30G10G26G17
  13664168.220 7  10647406.231 6  20828787.189    20828793.357          20.750
        18.750
  21464737.604 5  16699790.127 6  23480286.111    23480293.549          10.250
        12.250
  32875137.447 5  25616991.619 5  24379684.111    24379691.322           8.000
         6.750
   3215065.169 5   2501594.090 5  23045876.197    23045883.178          10.500
        11.500
   9217902.118 6   7179912.569 6  22107992.502    22107999.744          16.500
        19.500
 99  3  2  3 12 15.0020000  0  5G 6G30G10G26G17
  13721082.872 7  10691755.314 6  20839617.643    20839623.846          20.750
        18.750
  21569661.913 5  16781549.305 6  23500252.643    23500260.014          10.250
        12.250
  32981969.188 5  25700237.129 5  24400013.307    24400020.650           8.000
         6.750
   3239728.554 5   2520812.341 5  23050569.533    23050576.346          10.500
        11.500
   9254453.365 6   7208394.080 6  22114948.135    22114955.389          16.500
        19.500
 99  3  2  3 12 30.0020000  0  5G 6G30G10G26G17
  13778123.372 7  10736202.462 6  20850472.166    20850478.283          21.000
        18.750
  21674639.272 5  16863349.827 5  23520229.158    23520236.580          10.000
        11.750
  33088845.445 5  25783517.309 5  24420351.064    24420358.518           7.750
         6.750
   3264493.239 5   2540109.535 6  23055282.119    23055289.049          10.500
        12.000
   9291063.733 6   7236921.660 6  22121914.885    22121922.100          16.500
        19.500
 99  3  2  3 12 45.0020000  0  5G 6G30G10G26G17
  13835284.117 7  10780743.308 6  20861349.432    20861355.662          20.750
        18.750
  21779665.518 5  16945188.445 5  23540215.150    23540222.396          10.250
        11.750
  33195765.333 5  25866831.494 5  24440697.447    24440704.545           7.750
         6.750
   3289358.169 5   2559484.827 5  23060013.744    23060020.541          10.500
        11.750
   9327731.786 6   7265494.179 6  22128892.463    22128899.787          16.500
        19.500
 99  3  2  3 13  0.0020000  0  5G 6G30G10G26G17
  13892559.639 7  10825373.590 6  20872248.643    20872254.830          20.750
        18.750
  21884737.155 5  17027062.432 5  23560209.643    23560216.865          10.250
        11.750
  33302727.449 5  25950178.605 5  24461051.775    24461059.189           7.500
         6.500
   3314324.592 5   2578939.210 6  23064764.564    23064771.455          10.500
        12.000
   9364451.048 6   7294106.597 6  22135879.955    22135887.189          16.500
        19.750
 99  3  2  3 13 15.0020000  0  5G 6G30G10G26G17
  13949952.371 7  10870095.205 6  20883170.057    20883176.264          20.500
        18.750
  21989853.658 5  17108971.374 5  23580212.736    23580219.994          10.500
        11.750
  33409734.878 5  26033560.999 5  24481414.533    24481421.939           7.500
         6.500
   3339395.445 5   2598474.960 6  23069535.479    23069542.350          10.500
        12.250
   9401217.488 6   7322755.788 6  22142876.424    22142883.627          16.500
        19.750
 99  3  2  3 13 30.0020000  0  5G 6G30G10G26G17
  14007463.560 7  10914909.127 6  20894114.049    20894120.295          20.500
        18.750
  22095016.614 5  17190916.511 5  23600224.580    23600231.635          10.500
        11.750
  33516786.095 4  26116977.520 5  24501785.650    24501792.881           7.250
         6.500
   3364571.211 5   2618092.468 6  23074326.041    23074333.045          10.500
        12.250
   9438029.540 6   7351440.520 6  22149881.533    22149888.740          16.750
        20.000
 99  3  2  3 13 45.0020000  0  5G 6G30G10G26G17
  14065097.144 7  10959818.415 6  20905081.369    20905087.709          20.500
        18.750
  22200226.139 5  17272897.939 5  23620245.314    23620252.377          10.750
        11.500
  33623883.057 5  26200429.676 5  24522165.635    24522172.951           7.500
         6.250
   3389850.084 5   2637790.320 6  23079136.354    23079143.166          10.500
        12.000
   9474887.010 6   7380160.636 6  22156895.322    22156902.568          16.500
        20.000
 99  3  2  3 14  0.0020000  0  5G 6G30G10G26G17
  14122854.717 7  11004824.316 6  20916072.080    20916078.287          20.500
        18.750
  22305481.726 5  17354915.268 5  23640274.783    23640281.740          10.750
        11.500
  33731023.678 4  26283915.869 5  24542553.596    24542560.865           7.250
         6.250
   3415231.204 5   2657567.836 6  23083966.275    23083973.135          10.750
        12.250
   9511788.637 6   7408915.169 6  22163917.299    22163924.471          16.750
        20.000
 99  3  2  3 14 15.0020000  0  5G 6G30G10G26G17
  14180736.667 7  11049927.135 6  20927086.736    20927093.014          20.500
        19.000
  22410784.457 5  17436969.332 5  23660313.275    23660320.303          10.750
        11.500
  33838204.166 4  26367433.117 5  24562949.619    24562956.912           7.250
         6.250
   3440719.448 5   2677428.835 6  23088816.689    23088823.693          10.750
        12.500
   9548731.497 6   7437701.822 6  22170947.252    22170954.439          16.750
        20.000
 99  3  2  3 14 30.0020000  0  5G 6G30G10G26G17
  14238742.345 7  11095126.363 6  20938124.768    20938131.119          20.500
        18.750
  22516136.189 5  17519061.568 5  23680361.229    23680368.189          10.750
        11.250
  33945421.759 4  26450979.292 5  24583352.518    24583359.904           7.250
         6.000
   3466316.996 5   2697375.004 6  23093687.518    23093694.596          10.750
        12.500
   9585713.593 6   7466519.055 6  22177984.830    22177992.002          16.750
        20.000
 99  3  2  3 14 45.0020000  0  5G 6G30G10G26G17
  14296873.365 7  11140423.271 6  20949186.768    20949192.994          20.250
        19.000
  22621537.024 5  17601192.073 5  23700418.166    23700425.174          10.750
        11.250
  34052680.557 4  26534557.567 5  24603763.111    24603770.381           7.250
         6.000
   3492026.534 5   2717408.437 6  23098579.963    23098586.916          10.500
        12.500
   9622738.717 6   7495369.807 6  22185030.416    22185037.654          16.750
        20.000
 99  3  2  3 15  0.0020000  0  5G 6G30G10G26G17
  14355130.596 7  11185818.516 6  20960272.752    20960279.057          20.250
        19.000
  22726988.263 5  17683361.843 5  23720485.002    23720492.111          10.750
        11.250
  34159979.128 4  26618166.834 5  24624181.018    24624188.607           7.000
         6.000
   3517849.744 5   2737530.444 6  23103493.963    23103500.900          10.750
        12.750
   9659808.513 6   7524255.379 6  22192084.541    22192091.854          16.750
        20.000
 99  3  2  3 15 15.0020000  0  5G 6G30G10G26G17
  14413514.644 7  11231312.584 6  20971382.846    20971389.256          20.250
        19.000
  22832488.425 5  17765569.746 5  23740561.072    23740568.021          10.750
        11.250
  34267312.289 4  26701803.064 5  24644605.924    24644613.314           7.000
         5.750
   3543784.517 5   2757739.383 6  23108429.135    23108436.229          10.500
        12.750
   9696924.302 6   7553176.785 6  22199147.494    22199154.791          16.750
        20.250
 99  3  2  3 15 30.0020000  0  5G 6G30G10G26G17
  14472024.485 7  11276904.665 6  20982516.916    20982523.115          20.250
        18.750
  22938034.955 5  17847813.779 5  23760645.744    23760652.900          10.750
        11.250
  34374673.415 4  26785461.089 5  24665036.166    24665043.865           7.000
         6.000
   3569826.045 5   2778031.504 6  23113384.775    23113391.553          10.750
        12.750
   9734088.157 6   7582135.646 6  22206219.432    22206226.779          16.750
        20.250
 99  3  2  3 15 45.0020000  0  5G 6G30G10G26G17
  14530663.384 7  11322597.320 6  20993675.525    20993681.850          20.000
        19.000
  23043632.567 5  17930097.616 5  23780740.486    23780747.283          10.750
        11.250
  34482066.895 4  26869144.317 5  24685472.604    24685479.830           7.000
         6.000
   3595979.525 5   2798410.860 6  23118361.447    23118368.275          10.750
        13.000
   9771307.921 6   7611138.065 6  22213302.119    22213309.342          16.750
        20.250
 99  3  2  3 16  0.0020000  0  5G 6G30G10G26G17
  14589426.694 7  11368386.906 6  21004857.830    21004864.201          20.000
        19.000
  23149276.526 5  18012417.562 5  23800843.752    23800850.979          10.500
        11.250
  34589492.152 4  26952852.290 5  24705914.947    24705922.443           6.750
         5.750
   3622243.671 5   2818876.457 6  23123359.338    23123366.201          10.750
        13.000
   9808581.569 6   7640182.476 6  22220394.971    22220402.170          16.750
        20.000
 99  3  2  3 16 15.0020000  0  5G 6G30G10G26G17
  14648309.627 7  11414269.717 6  21016062.877    21016069.311          20.000
        19.000
  23254968.076 5  18094774.589 5  23820956.213    23820963.213          10.500
        11.250
  34696946.144 4  27036582.671 5  24726362.502    24726370.209           6.750
         5.750
   3648616.859 5   2839427.015 6  23128377.947    23128384.975          10.750
        13.000
   9845906.261 6   7669266.656 6  22227497.713    22227504.932          16.750
        20.000
 99  3  2  3 16 30.0020000  0  5G 6G30G10G26G17
  14707314.227 7  11460247.321 6  21027291.057    21027297.494          20.000
        19.250
  23360708.399 5  18177169.627 5  23841077.846    23841085.033          10.500
        11.250
  34804429.679 4  27120336.058 5  24746816.221    24746823.318           6.750
         5.750
   3675099.574 5   2860062.922 6  23133417.299    23133424.451          10.500
        13.250
   9883285.068 6   7698393.011 6  22234610.674    22234617.877          16.750
        20.000
 99  3  2  3 16 45.0020000  0  5G 6G30G10G26G17
  14766441.154 6  11506320.249 6  21038542.549    21038548.889          19.750
        19.000
  23466496.185 5  18259601.652 5  23861208.666    23861215.822          10.250
        11.000
  34911945.444 4  27204114.572 5  24767275.729    24767283.197           6.750
         5.750
   3701692.043 5   2880784.354 6  23138477.760    23138484.670          10.750
        13.250
   9920722.034 6   7727564.679 6  22241734.627    22241741.791          16.750
        20.000
 99  3  2  3 17  0.0020000  0  5G 6G30G10G26G17
  14825688.310 6  11552486.867 6  21049816.838    21049823.342          19.750
        19.250
  23572329.970 5  18342069.512 5  23881348.244    23881355.240          10.000
        11.000
  35019492.032 4  27287917.118 5  24787741.119    24787748.627           6.750
         5.750
   3728397.390 5   2901593.737 6  23143559.533    23143566.510          10.750
        13.250
   9958217.698 6   7756782.083 6  22248869.877    22248877.107          16.750
        20.000
 99  3  2  3 17 15.0020000  0  5G 6G30G10G26G17
  14885053.095 6  11598745.142 6  21061113.689    21061120.025          19.750
        19.250
  23678205.931 5  18424570.236 5  23901495.705    23901502.803          10.000
        11.000
  35127063.897 4  27371739.334 5  24808211.432    24808218.619           6.750
         5.750
   3755212.543 5   2922488.685 6  23148662.338    23148669.299          11.000
        13.500
   9995767.150 6   7786041.391 6  22256015.236    22256022.404          16.750
        20.000
 99  3  2  3 17 30.0020000  0  5G 6G30G10G26G17
  14944535.885 6  11645095.365 6  21072432.799    21072439.189          19.750
        19.250
  23784122.471 5  18507102.584 5  23921650.893    23921658.232           9.750
        11.000
  35234662.173 4  27455582.153 5  24828686.752    24828693.947           6.750
         5.750
   3782135.332 5   2943467.507 6  23153785.549    23153792.561          11.000
        13.250
  10033367.874 6   7815340.655 6  22263170.502    22263177.748          16.750
        20.000
 99  3  2  3 17 45.0020000  0  5G 6G30G10G26G17
  15004142.623 6  11691542.175 6  21083775.619    21083781.951          19.750
        19.250
  23890085.326 5  18589671.023 5  23941815.025    23941822.178           9.750
        10.750
  35342293.101 4  27539450.389 5  24849168.338    24849175.576           6.750
         5.500
   3809171.025 5   2964534.308 6  23158930.197    23158937.307          11.000
        13.500
  10071023.438 6   7844682.663 6  22270336.088    22270343.252          16.750
        20.000
 99  3  2  3 18  0.0020000  0  5G 6G30G10G26G17
  15063868.311 6  11738081.670 6  21095141.025    21095147.354          19.750
        19.250
  23996089.028 5  18672271.290 5  23961986.908    23961994.084           9.750
        10.500
  35449956.016 4  27623343.588 5  24869655.861    24869663.076           6.500
         5.500
   3836318.248 5   2985688.011 6  23164096.111    23164103.197          11.000
        13.500
  10108728.985 6   7874063.622 6  22277511.150    22277518.377          16.750
        20.000
 99  3  2  3 18 15.0020000  0  5G 6G30G10G26G17
  15123715.101 6  11784715.534 6  21106529.518    21106535.877          19.750
        19.250
  24102133.581 5  18754903.388 5  23982166.299    23982173.541           9.500
        10.500
  35557650.898 4  27707261.677 5  24890149.432    24890156.666           6.500
         5.500
   3863578.314 5   3006929.642 6  23169283.361    23169290.666          11.000
        13.500
  10146483.806 6   7903482.962 6  22284695.611    22284702.686          16.750
        20.000
 99  3  2  3 18 30.0020000  0  5G 6G30G10G26G17
  15183682.350 7  11831443.262 6  21117940.963    21117947.256          20.000
        19.250
  24208215.280 5  18837564.430 5  24002353.002    24002360.420           9.250
        10.500
  35665371.922 4  27791200.131 5  24910648.127    24910655.572           6.250
         5.500
   3890948.883 5   3028257.393 6  23174492.064    23174498.920          11.000
        13.750
  10184283.507 6   7932937.285 6  22291888.705    22291895.756          16.750
        20.000
 99  3  2  3 18 45.0020000  0  5G 6G30G10G26G17
  15243769.922 7  11878264.742 6  21129375.244    21129381.537          20.000
        19.000
  24314329.542 5  18920250.834 5  24022545.729    24022553.041           9.250
        10.500
  35773121.088 3  27875160.524 5  24931152.033    24931159.604           6.000
         5.500
   3918431.021 5   3049672.070 6  23179721.588    23179728.654          11.250
        13.750
  10222127.131 6   7962425.833 6  22299090.135    22299097.248          16.750
        20.000
 99  3  2  3 19  0.0030000  0  5G 6G30G10G26G17
  15303987.068 7  11925187.198 6  21140834.140    21140840.433          20.000
        19.250
  24420487.243 5  19002971.105 5  24042747.069    24042754.327           9.000
        10.500
  35880909.952 3  27959151.832 5  24951663.577    24951670.933           5.750
         5.000
   3946032.593 5   3071179.801 6  23184973.991    23184981.046          11.000
        13.750
  10260021.355 6   7991953.809 6  22306301.155    22306308.229          17.000
        20.000
 99  3  2  3 19 15.0030000  0  5G 6G30G10G26G17
  15364325.275 7  11972203.985 6  21152316.155    21152322.421          20.000
        19.000
  24526671.562 5  19085712.095 5  24062953.241    24062960.659           9.000
        10.250
  35988719.423 3  28043159.186 5  24972178.733    24972186.640           5.750
         5.000
   3973745.365 5   3092774.204 6  23190247.718    23190254.749          11.000
        13.500
  10297957.475 6   8021514.422 6  22313520.132    22313527.202          16.750
        20.000
 99  3  2  3 19 30.0030000  0  5G 6G30G10G26G17
  15424795.061 7  12019323.302 6  21163823.194    21163829.464          20.000
        19.250
  24632895.337 5  19168483.846 5  24083166.913    24083174.124           9.000
        10.250
  36096564.220 3  28127194.098 5  24992701.249    24992708.433           5.750
         5.250
   4001573.029 5   3114458.121 6  23195543.179    23195550.128          11.000
        14.000
  10335943.999 6   8051114.322 6  22320748.944    22320755.956          17.000
        20.250
 99  3  2  3 19 45.0030000  0  5G 6G30G10G26G17
  15485395.125 7  12066544.128 6  21175354.960    21175361.269          20.000
        19.250
  24739160.974 5  19251288.221 5  24103388.749    24103396.163           9.000
        10.500
  36204441.611 3  28211254.393 5  25013229.515    25013236.831           5.500
         5.000
   4029517.664 5   3136233.177 6  23200860.827    23200867.944          11.250
        14.000
  10373982.627 6   8080754.824 6  22327987.163    22327994.175          17.000
        20.250
 99  3  2  3 20  0.0030000  0  5G 6G30G10G26G17
  15546117.900 7  12113860.577 6  21186910.171    21186916.401          20.250
        19.000
  24845461.285 5  19334119.593 5  24123617.069    24123624.401           9.250
        10.000
  36312345.631 3  28295335.447 5  25033762.827    25033770.249           5.500
         4.750
   4057575.628 5   3158096.557 6  23206199.983    23206206.944          11.250
        14.000
  10412065.436 6   8110429.746 6  22335234.226    22335241.382          17.000
        20.000
 99  3  2  3 20 15.0030000  0  5G 6G30G10G26G17
  15606964.018 7  12161273.135 6  21198488.851    21198495.062          20.250
        19.000
  24951797.671 5  19416979.081 5  24143852.335    24143859.601           9.250
        10.000
  36420277.069 3  28379437.846 5  25054301.546    25054309.159           5.500
         4.500
   4085749.417 5   3180050.188 6  23211561.351    23211568.190          11.250
        14.000
  10450192.653 6   8140139.270 6  22342489.663    22342496.690          17.000
        20.000
 99  3  2  3 20 30.0030000  0  5G 6G30G10G26G17
  15667934.194 7  12208782.364 6  21210091.038    21210097.226          20.250
        19.250
  25058173.034 5  19499868.974 5  24164094.913    24164102.101           9.000
        10.000
  36528233.219 3  28463559.514 5  25074845.280    25074852.440           5.500
         4.500
   4114037.801 5   3202093.101 6  23216944.304    23216951.198          11.250
        13.500
  10488364.029 6   8169883.210 6  22349753.483    22349760.499          17.500
        20.250
 99  3  2  3 20 45.0030000  0  5G 6G30G10G26G17
  15729029.249 7  12256388.909 6  21221717.046    21221723.304          20.000
        19.000
  25164590.321 5  19582791.506 5  24184345.210    24184352.737           9.250
        10.000
  36636216.510 3  28547702.335 4  25095393.499    25095400.878           5.750
         4.250
   4142443.517 5   3224227.453 6  23222349.624    23222356.522          11.250
        13.750
  10526585.370 6   8199666.088 6  22357026.718    22357033.694          17.750
        20.500
 99  3  2  3 21  0.0030000  0  5G 6G30G10G26G17
  15790246.665 7  12304090.792 6  21233366.319    21233372.472          20.250
        18.750
  25271048.046 5  19665745.546 5  24204603.858    24204610.991           9.250
         9.750
  36744223.987 3  28631864.010 4  25115946.952    25115953.983           5.750
         4.250
   4170965.331 5   3246452.267 6  23227777.155    23227783.897          11.500
        13.500
  10564857.969 6   8229488.900 6  22364309.827    22364316.851          17.500
        20.500
 99  3  2  3 21 15.0030000  0  5G 6G30G10G26G17
  15851583.779 7  12351885.943 6  21245038.452    21245044.515          20.500
        18.750
  25377544.595 5  19748729.836 5  24224869.265    24224876.448           9.250
         9.500
  36852251.049 3  28716040.913 4  25136503.733    25136510.831           5.750
         4.000
   4199598.726 5   3268764.031 6  23233225.929    23233232.843          11.500
        13.500
  10603180.501 6   8259350.623 6  22371602.265    22371609.292          17.500
        20.500
 99  3  2  3 21 30.0030000  0  5G 6G30G10G26G17
  15913044.357 7  12399777.307 6  21256733.897    21256739.937          20.500
        18.750
  25484084.369 5  19831747.819 5  24245143.155    24245150.437           9.500
         9.500
  36960304.061 3  28800238.084 4  25157065.718    25157072.577           5.750
         4.000
   4228346.480 5   3291164.897 6  23238696.429    23238703.343          11.750
        13.500
  10641558.909 6   8289255.883 6  22378905.460    22378912.472          17.500
        20.500
 99  3  2  3 21 45.0030000  0  5G 6G30G10G26G17
  15974623.106 7  12447760.747 6  21268452.062    21268458.155          20.500
        18.750
  25590662.037 5  19914795.325 5  24265424.288    24265431.624           9.500
         9.500
  37068378.746 3  28884452.116 4  25177631.546    25177638.460           5.500
         4.000
   4257205.819 5   3313652.717 6  23244188.218    23244195.015          11.500
        13.250
  10679989.761 6   8319202.014 6  22386218.515    22386225.659          17.500
        20.500
 99  3  2  3 22  0.0030000  0  5G 6G30G10G26G17
  16036320.092 7  12495836.327 6  21280192.624    21280198.706          20.500
        18.750
  25697273.682 5  19997869.300 5  24285711.796    24285718.765           9.500
         9.500
  37176473.826 3  28968682.037 4  25198201.257    25198208.198           5.500
         4.000
   4286175.562 5   3336226.562 6  23249700.866    23249707.769          11.750
        13.250
  10718472.028 6   8349188.207 6  22393541.358    22393548.487          17.500
        20.500
 99  3  2  3 22 15.0030000  0  5G 6G30G10G26G17
  16098137.300 7  12544005.575 6  21291956.054    21291962.183          20.750
        18.500
  25803918.815 5  20080969.384 5  24306005.679    24306012.944           9.250
         9.500
  37284594.330 3  29052931.804 4  25218775.890    25218783.175           5.500
         3.750
   4315258.535 5   3358888.649 6  23255235.257    23255242.101          11.500
        13.250
  10757006.893 6   8379215.379 6  22400874.312    22400881.503          17.500
        20.500
 99  3  2  3 22 30.0030000  0  5G 6G30G10G26G17
  16160075.430 7  12592269.062 6  21303742.499    21303748.491          20.500
        18.750
  25910595.983 5  20164094.431 5  24326305.796    24326313.030           9.250
         9.750
  37392737.458 3  29137199.168 4  25239354.655    25239361.835           5.500
         3.750
   4344453.093 5   3381637.669 6  23260790.780    23260797.655          11.500
        13.500
  10795597.197 6   8409285.762 6  22408217.788    22408225.007          17.500
        21.000
 99  3  2  3 22 45.0030000  0  5G 6G30G10G26G17
  16222132.461 7  12640625.185 6  21315551.585    21315557.679          20.500
        18.750
  26017300.557 5  20247240.815 5  24346611.147    24346618.194           9.250
         9.500
  37500899.715 3  29221481.446 4  25259937.327    25259944.921           5.500
         3.500
   4373756.214 5   3404471.299 6  23266366.835    23266373.761          11.500
        13.500
  10834239.551 6   8439396.697 6  22415571.194    22415578.401          17.750
        21.000
 99  3  2  3 23  0.0030000  0  5G 6G30G10G26G17
  16284309.343 7  12689074.710 6  21327383.397    21327389.597          20.250
        19.000
  26124027.539 5  20330404.673 5  24366920.288    24366927.733           9.000
         9.500
  37609081.448 3  29305778.903 4  25280523.780    25280530.628           5.500
         3.500
   4403167.739 5   3427389.396 6  23271963.733    23271970.608          11.500
        13.500
  10872932.910 6   8469547.374 6  22422934.312    22422941.444          17.750
        21.000
 99  3  2  3 23 15.0030000  0  5G 6G30G10G26G17
  16346605.619 7  12737617.267 6  21339237.952    21339243.960          20.250
        18.750
  26230773.832 5  20413583.577 5  24387233.499    24387240.976           8.750
         9.750
  37717283.924 3  29390092.539 4  25301114.046    25301121.167           5.500
         3.500
   4432684.897 5   3450389.799 6  23277580.733    23277587.565          11.500
        13.500
  10911672.401 6   8499733.989 6  22430306.265    22430313.409          17.750
        21.000
 99  3  2  3 23 30.0030000  0  5G 6G30G10G26G17
  16409024.088 7  12786255.033 6  21351115.757    21351121.788          20.500
        19.000
  26337541.432 5  20496779.078 5  24407550.562    24407558.093           8.750
         9.500
  37825510.145 3  29474424.668 4  25321708.788    25321715.858           5.250
         3.500
   4462309.328 5   3473473.802 6  23283217.937    23283224.800          11.500
        13.500
  10950456.719 6   8529955.539 6  22437686.702    22437693.784          17.750
        21.250
 99  3  2  3 23 45.0030000  0  5G 6G30G10G26G17
  16471562.507 7  12834986.272 6  21363016.491    21363022.464          20.500
        18.750
  26444329.583 5  20579990.610 5  24427871.772    24427879.229           8.250
         9.500
  37933757.496 3  29558773.246 3  25342307.741    25342314.874           5.000
         3.250
   4492043.191 5   3496643.065 6  23288876.046    23288882.843          11.500
        13.250
  10989281.658 6   8560208.745 6  22445074.647    22445081.894          17.500
        21.000
 99  3  2  3 24  0.0030000  0  5G 6G30G10G26G17
  16534220.589 7  12883810.751 6  21374939.827    21374945.913          20.250
        18.750
  26551139.307 5  20663218.930 5  24448196.960    24448204.397           8.250
         9.250
  38042022.682 3  29643135.737 3  25362909.585    25362916.503           5.000
         3.250
   4521889.403 5   3519899.882 6  23294555.554    23294562.272          11.250
        13.500
  11028143.064 6   8590490.373 6  22452469.726    22452477.093          17.500
        21.000
 99  3  2  3 24 15.0030000  0  5G 6G30G10G26G17
  16596999.053 7  12932729.036 6  21386886.233    21386892.222          20.250
        18.750
  26657972.833 5  20746465.800 5  24468526.765    24468534.144           8.250
         9.500
  38150306.049 3  29727512.399 3  25383515.413    25383522.194           5.000
         3.250
   4551851.057 5   3543246.651 6  23300256.968    23300263.745          11.250
        13.250
  11067040.428 6   8620800.017 6  22459871.624    22459878.858          17.500
        21.000
 99  3  2  3 24 30.0030000  0  5G 6G30G10G26G17
  16659892.629 7  12981737.015 6  21398854.374    21398860.440          20.500
        18.750
  26764824.539 5  20829726.849 5  24488860.116    24488867.409           8.000
         9.500
  38258602.170 2  29811898.984 3  25404123.218    25404130.409           4.500
         3.250
   4581923.899 5   3566680.059 6  23305979.562    23305986.296          11.250
        13.250
  11105970.221 6   8651134.931 6  22467279.726    22467286.933          17.500
        21.000
 99  3  2  3 24 45.0030000  0  5G 6G30G10G26G17
  16722905.907 7  13030838.266 6  21410845.374    21410851.468          20.250
        18.750
  26871700.007 5  20913006.390 5  24509197.421    24509205.292           7.750
         9.500
  38366912.662 2  29896296.784 3  25424734.304    25424741.144           4.500
         3.250
   4612111.187 5   3590202.645 6  23311724.179    23311730.870          11.500
        13.250
  11144935.906 6   8681497.804 6  22474694.655    22474701.897          17.500
        21.000
 99  3  2  3 25  0.0030000  0  4G 6G30G26G17
  16786037.424 7  13080031.651 6  21422858.937    21422864.991          20.250
        18.750
  26978598.963 5  20996304.247 5  24529539.913    24529547.499           8.000
         9.750
   4642414.780 5   3613815.860 6  23317490.819    23317497.448          11.500
        12.750
  11183935.618 6   8711887.194 6  22482115.960    22482123.362          17.000
        21.250
 99  3  2  3 25 15.0030000  0  4G 6G30G26G17
  16849275.539 7  13129308.115 6  21434892.890    21434898.944          20.500
        18.750
  27085513.990 5  21079614.611 5  24549885.202    24549892.729           7.750
        10.000
   4672827.073 5   3637513.772 6  23323278.147    23323284.687          11.500
        13.250
  11222961.444 6   8742296.936 6  22489542.343    22489549.581          17.000
        21.000
 99  3  2  3 25 30.0030000  0  4G 6G30G26G17
  16912627.503 7  13178673.281 6  21446948.335    21446954.417          20.250
        18.750
  27192457.366 5  21162947.089 5  24570235.890    24570243.577           7.750
         9.750
   4703358.828 5   3661304.773 6  23329088.187    23329094.847          11.500
        13.250
  11262021.884 6   8772733.650 6  22496975.343    22496982.542          17.000
        21.000
 99  3  2  3 25 45.0030000  0  4G 6G30G26G17
  16976090.134 7  13228124.672 6  21459024.733    21459030.862          20.250
        18.750
  27299428.627 5  21246301.295 5  24590591.788    24590599.487           7.750
        10.000
   4734011.405 5   3685189.920 6  23334921.038    23334927.772          11.750
        13.000
  11301116.106 6   8803196.689 6  22504414.515    22504421.847          16.750
        21.000
 99  3  2  3 26  0.0040000  0  4G 6G30G26G17
  17039666.705 7  13277664.864 6  21471122.996    21471128.984          20.250
        18.500
  27406430.992 5  21329679.728 5  24610953.551    24610961.445           7.750
        10.250
   4764784.885 5   3709169.271 6  23340776.902    23340783.617          11.500
        13.000
  11340248.386 6   8833689.390 6  22511861.098    22511868.410          16.750
        21.000
 99  3  2  3 26 15.0040000  0  4G 6G30G26G17
  17103352.299 7  13327289.996 6  21483242.090    21483248.078          20.000
        18.750
  27513450.224 5  21413071.300 5  24631318.855    24631326.535           7.500
        10.000
   4795674.877 5   3733239.425 6  23346654.934    23346661.605          11.500
        13.000
  11379419.527 6   8864212.362 6  22519315.105    22519322.492          16.750
        21.000
 99  3  2  3 26 30.0040000  0  4G 6G30G26G17
  17167147.388 7  13377000.455 6  21495381.684    21495387.879          20.000
        18.750
  27620486.669 5  21496476.281 5  24651687.012    24651694.773           7.500
        10.000
   4826677.116 5   3757397.034 6  23352554.777    23352561.223          11.500
        13.000
  11418630.681 6   8894766.524 6  22526776.746    22526784.027          16.750
        21.000
 99  3  2  3 26 45.0040000  0  4G 6G30G26G17
  17231055.229 7  13426798.774 6  21507542.934    21507549.012          20.000
        18.750
  27727543.253 4  21579896.967 5  24672058.957    24672066.988           7.250
        10.250
   4857791.337 5   3781641.899 6  23358475.512    23358482.000          11.500
        13.000
  11457884.209 6   8925353.699 6  22534246.512    22534253.687          16.750
        20.750
 99  3  2  3 27  0.0040000  0  4G 6G30G26G17
  17295079.267 6  13476687.634 6  21519726.402    21519732.602          19.750
        19.000
  27834622.216 5  21663335.075 5  24692435.988    24692443.773           7.500
        10.000
   4889018.804 5   3805975.015 6  23364417.809    23364424.391          11.750
        13.250
  11497180.374 6   8955974.098 6  22541724.371    22541731.625          16.750
        20.750
 99  3  2  3 27 15.0040000  0  4G 6G30G26G17
  17359214.669 6  13526663.272 6  21531930.941    21531937.121          19.750
        18.750
  27941715.945 5  21746784.694 5  24712815.066    24712823.121           7.500
         9.750
   4920352.180 5   3830390.650 6  23370380.379    23370387.059          11.500
        13.000
  11536514.622 6   8986624.174 6  22549209.371    22549216.656          16.750
        21.000
 99  3  2  3 27 30.0040000  0  4G 6G30G26G17
  17423466.684 6  13576729.771 6  21544157.730    21544163.922          19.750
        19.000
  28048827.462 5  21830248.178 5  24733197.746    24733205.727           7.500
         9.750
   4951794.004 5   3854890.806 6  23376363.652    23376370.227          11.750
        13.250
  11575890.579 6   9017306.751 6  22556702.355    22556709.535          16.750
        20.750
 99  3  2  3 27 45.0040000  0  4G 6G30G26G17
  17487838.282 6  13626889.463 6  21556407.152    21556413.316          19.750
        18.750
  28155953.846 5  21913723.255 5  24753583.426    24753591.324           7.500
         9.500
   4983343.686 5   3879474.984 6  23382367.199    23382373.883          11.500
        12.750
  11615307.259 6   9048021.060 6  22564203.066    22564210.332          16.750
        21.000
 99  3  2  3 28  0.0040000  0  4G 6G30G26G17
  17552327.960 6  13677141.156 6  21568679.113    21568685.336          19.500
        19.250
  28263089.510 5  21997205.546 5  24773970.777    24773978.539           8.000
         9.500
   5014997.133 5   3904140.024 6  23388390.652    23388397.344          11.750
        13.250
  11654763.581 6   9078766.266 6  22571711.332    22571718.703          16.750
        21.000
 99  3  2  3 28 15.0040000  0  4G 6G30G26G17
  17616936.098 6  13727485.159 6  21580973.637    21580979.945          19.250
        19.250
  28370232.517 5  22080693.568 5  24794359.379    24794367.148           7.750
         9.500
   5046752.390 6   3928884.401 6  23394433.644    23394440.223          12.000
        13.250
  11694256.903 6   9109540.290 6  22579226.691    22579233.883          16.750
        20.500
 99  3  2  3 28 30.0040000  0  4G 6G30G26G17
  17681659.891 6  13777919.283 6  21593290.129    21593296.352          19.500
        19.000
  28477381.547 5  22164186.288 5  24814749.230    24814756.742           8.000
         9.000
   5078611.116 5   3953709.408 6  23400495.840    23400502.414          11.750
        13.000
  11733782.440 6   9140339.417 6  22586748.262    22586755.391          16.750
        20.750
 99  3  2  3 28 45.0040000  0  4G 6G30G26G17
  17746503.491 6  13828446.767 6  21605629.543    21605635.805          19.500
        18.750
  28584537.920 5  22247684.720 5  24835140.769    24835147.906           8.250
         8.750
   5110576.838 5   3978617.781 6  23406578.746    23406585.387          11.500
        13.000
  11773341.077 6   9171164.344 6  22594275.918    22594283.117          16.750
        20.750
 99  3  2  3 29  0.0040000  0  4G 6G30G26G17
  17811466.939 6  13879067.636 6  21617991.621    21617997.855          19.250
        19.250
  28691701.406 5  22331188.714 5  24855533.269    24855540.383           8.250
         8.750
   5142651.732 5   4003611.233 6  23412682.426    23412689.047          11.750
        13.000
  11812932.518 6   9202014.839 6  22601809.871    22601817.246          16.750
        21.000
 99  3  2  3 29 15.0040000  0  4G 6G30G26G17
  17876546.269 6  13929778.802 6  21630375.801    21630382.113          19.250
        19.250
  28798869.155 5  22414696.012 5  24875926.613    24875933.785           8.500
         8.750
   5174837.151 5   4028690.804 6  23418807.019    23418813.699          11.500
        13.000
  11852554.858 6   9232889.409 6  22609349.691    22609356.965          16.750
        21.000
 99  3  2  3 29 30.0040000  0  4G 6G30G26G17
  17941744.430 6  13980582.563 6  21642782.574    21642788.898          19.250
        19.000
  28906046.754 5  22498210.986 5  24896321.801    24896329.352           8.250
         8.750
   5207141.192 5   4053862.809 6  23424954.371    23424960.863          11.750
        13.250
  11892214.306 6   9263792.889 6  22616896.738    22616903.898          17.000
        20.750
 99  3  2  3 29 45.0040000  0  4G 6G30G26G17
  18007063.730 6  14031480.725 6  21655212.441    21655218.742          19.250
        19.000
  29013236.414 5  22581735.373 5  24916719.293    24916726.406           8.500
         8.500
   5239566.382 5   4079129.221 6  23431124.652    23431131.371          11.750
        13.000
  11931913.722 6   9294727.515 6  22624451.262    22624458.477          17.000
        21.000
 99  3  2  3 30  0.0040000  0  4G 6G30G26G17
  18072503.115 6  14082472.450 6  21667665.215    21667671.406          19.250
        19.250
  29120436.970 5  22665268.219 5  24937119.019    24937126.387           9.250
         8.500
   5272112.100 5   4104489.528 6  23437317.769    23437324.500          11.500
        13.250
  11971653.319 6   9325693.442 6  22632013.574    22632020.797          17.500
        21.000
 99  3  2  3 31 15.0040000  4  2
END OF STATIC OBSERVATION                                   COMMENT
1.501                                                       COMMENT
 99  3  2  3 31 15.0040000  0  4G 6G30G26G17
  18401450.825 6  14338795.348 6  21730261.566    21730267.984          18.750
        19.500
  29656590.980 5  23083050.411 5  25039146.098    25039153.348           9.250
         8.250
   5436647.009 6   4232698.671 6  23468627.863    23468634.394          12.250
        13.250
  12170968.235 6   9481003.829 6  22669942.019    22669948.965          17.500
        20.750
 99  3  2  3 31 30.0040000  0  4G 6G30G26G17
  18467586.126 6  14390329.352 6  21742846.762    21742853.129          18.750
        19.250
  29763861.229 5  23166637.587 5  25059558.887    25059566.375           9.000
         8.250
   5469919.153 6   4258625.044 6  23474959.246    23474965.750          12.250
        13.250
  12210963.072 6   9512168.656 6  22677552.551    22677559.617          17.250
        20.750
 99  3  2  3 31 45.0040000  0  4G 6G30G26G17
  18533836.575 6  14441953.078 6  21755453.902    21755460.312          19.000
        19.500
  29871141.561 5  23250232.611 5  25079973.559    25079980.941           9.000
         8.500
   5503309.965 6   4284643.877 6  23481313.262    23481319.824          12.500
        13.500
  12250999.545 6   9543365.931 6  22685171.332    22685178.332          17.750
        21.000
 99  3  2  3 32  0.0040000  0  4G 6G30G26G17
  18600206.619 6  14493669.985 6  21768083.746    21768089.969          19.250
        19.500
  29978433.234 5  23333836.492 5  25100390.738    25100398.090           8.750
         8.500
   5536824.538 6   4310759.160 6  23487690.707    23487697.449          12.250
        13.500
  12291078.504 6   9574596.305 6  22692798.004    22692805.086          17.250
        20.500
 99  3  2  3 32 15.0040000  4  2
1.501                                                       COMMENT
1.501                                                       COMMENT
 99  3  2  3 32 15.0040000  0  4G 6G30G26G17
  18666690.960 6  14545475.970 6  21780735.199    21780741.527          19.000
        19.250
  30085732.346 5  23417446.155 5  25120808.832    25120816.199           8.000
         8.250
   5570462.479 6   4336970.563 6  23494091.902    23494098.465          12.500
        13.500
  12331195.143 6   9605856.034 6  22700431.894    22700438.863          17.500
        20.750
 99  3  2  3 32 30.0040000  0  4G 6G30G26G17
  18733290.557 6  14597371.758 6  21793408.738    21793415.031          19.250
        19.250
  30193039.893 5  23501062.395 5  25141228.676    25141236.668           8.000
         8.500
   5604226.069 6   4363279.868 6  23500517.113    23500523.570          12.750
        13.500
  12371348.561 6   9637144.428 6  22708072.902    22708080.082          17.500
        20.750
 99  3  2  3 32 45.0040000  0  4G 6G30G26G17
  18799998.556 6  14649352.014 6  21806102.816    21806109.137          19.000
        19.000
  30300349.871 5  23584680.526 5  25161649.215    25161657.043           7.750
         8.750
   5638108.180 6   4389681.544 6  23506964.535    23506971.004          12.750
        13.500
  12411530.961 6   9668455.407 6  22715719.465    22715726.445          17.750
        20.750
 99  3  2  3 33  0.0050000  0  4G 6G30G26G17
  18866824.144 6  14701423.903 6  21818819.368    21818825.532          19.250
        19.000
  30407676.037 5  23668311.265 5  25182072.665    25182080.474           7.750
         8.750
   5672115.689 6   4416180.920 6  23513435.845    23513442.376          12.750
        13.500
  12451748.642 6   9699793.879 6  22723372.509    22723379.505          17.750
        20.750
 99  3  2  3 33 15.0050000  0  4G 6G30G26G17
  18933761.963 6  14753583.238 6  21831557.251    21831563.415          19.250
        19.000
  30515000.012 5  23751940.293 5  25202495.712    25202503.591           7.500
         8.750
   5706245.864 6   4442775.888 6  23519930.626    23519937.024          13.000
        13.500
  12491994.158 6   9731154.043 6  22731030.938    22731038.013          17.750
        20.500
 99  3  2  3 33 30.0050000  0  4G 6G30G26G17
  19000816.735 6  14805833.711 6  21844317.353    21844323.548          19.250
        19.000
  30622324.231 5  23835569.522 5  25222918.978    25222926.845           7.500
         8.750
   5740499.664 6   4469467.181 6  23526448.618    23526455.130          13.000
        13.250
  12532268.983 6   9762537.035 6  22738694.962    22738702.095          17.750
        20.500
 99  3  2  3 33 45.0050000  0  4G 6G30G26G17
  19067989.712 6  14858176.289 6  21857099.813    21857106.169          19.250
        19.000
  30729648.307 5  23919198.621 5  25243342.001    25243349.966           7.500
         8.750
   5774873.545 6   4496252.049 6  23532989.923    23532996.388          13.000
        13.250
  12572572.785 6   9793942.614 6  22746364.657    22746371.677          18.000
        20.500
 99  3  2  3 34  0.0050000  0  4G 6G30G26G17
  19135285.239 6  14910614.357 6  21869905.720    21869911.954          19.250
        18.750
  30836977.976 5  24002832.096 5  25263766.235    25263774.118           7.500
         8.750
   5809374.017 6   4523135.547 6  23539555.243    23539561.677          13.250
        13.250
  12612910.494 6   9825374.616 6  22754040.579    22754047.642          18.000
        20.500
 99  3  2  3 34 15.0050000  0  4G 6G30G26G17
  19202695.076 6  14963141.504 6  21882733.603    21882739.802          19.250
        18.750
  30944311.198 5  24086468.334 5  25284191.079    25284198.981           7.500
         8.750
   5843996.629 6   4550114.221 6  23546143.751    23546150.005          13.250
        13.250
  12653279.931 6   9856831.340 6  22761722.587    22761729.587          18.000
        20.500
 99  3  2  3 34 30.0050000  0  4G 6G30G26G17
  19270217.554 6  15015756.417 6  21895582.665    21895588.786          19.250
        18.750
  31051647.147 5  24170106.710 5  25304616.399    25304624.196           7.500
         8.750
   5878735.765 6   4577183.698 6  23552754.056    23552760.310          13.250
        13.250
  12693683.566 6   9888314.711 6  22769411.103    22769418.040          18.000
        20.500
 99  3  2  3 34 45.0050000  0  4G 6G30G26G17
  19337854.928 6  15068460.869 6  21908453.649    21908459.841          19.250
        18.750
  31158988.488 5  24253749.273 5  25325042.868    25325050.845           7.500
         8.750
   5913589.795 6   4604342.710 6  23559386.806    23559393.103          13.250
        13.250
  12734123.853 6   9919826.639 6  22777106.673    22777113.614          18.000
        20.500
 99  3  2  3 35  0.0050000  0  4G 6G30G26G17
  19405608.085 6  15121255.537 6  21921346.657    21921352.708          19.250
        18.750
  31266338.686 5  24337398.750 5  25345470.853    25345478.856           7.500
         9.000
   5948557.898 6   4631590.598 6  23566040.892    23566047.130          13.500
        13.250
  12774602.518 6   9951368.471 6  22784809.454    22784816.392          18.000
        20.500
 99  3  2  3 35 15.0050000  0  4G 6G30G26G17
  19473477.593 6  15174140.865 6  21934261.798    21934267.911          19.000
        18.750
  31373694.514 4  24421052.595 5  25365900.165    25365908.087           7.250
         9.000
   5983638.025 6   4658925.786 6  23572716.485    23572722.860          13.500
        13.250
  12815120.593 6   9982941.017 6  22792519.774    22792526.731          18.250
        20.250
 99  3  2  3 35 30.0050000  0  4G 6G30G26G17
  19541462.913 6  15227116.438 6  21947199.017    21947205.028          19.000
        18.750
  31481054.125 4  24504709.408 5  25386330.149    25386337.935           7.250
         8.750
   6018831.114 6   4686348.989 6  23579413.517    23579419.876          13.500
        13.250
  12855681.156 6  10014546.666 6  22800238.204    22800245.126          18.250
        20.250
 99  3  2  3 35 45.0050000  0  4G 6G30G26G17
  19609558.088 6  15280177.605 6  21960157.024    21960163.204          19.000
        18.750
  31588419.285 4  24588370.526 5  25406760.759    25406768.915           7.250
         8.750
   6054133.481 6   4713857.349 6  23586131.321    23586137.708          13.250
        13.500
  12896279.434 6  10046181.705 6  22807963.884    22807970.731          18.250
        20.250
 99  3  2  3 36  0.0050000  0  4G 6G30G26G17
  19677765.572 6  15333326.294 6  21973136.462    21973142.638          18.750
        18.750
  31695794.359 5  24672039.387 5  25427193.665    25427201.583           7.500
         8.250
   6089551.688 6   4741455.979 6  23592871.095    23592877.509          13.500
        13.250
  12936919.041 6  10077848.947 6  22815697.188    22815704.087          18.250
        20.250
 99  3  2  3 36 15.0050000  0  4G 6G30G26G17
  19746082.170 6  15386560.011 6  21986136.657    21986142.872          18.750
        18.750
  31803176.482 5  24755713.747 5  25447627.907    25447635.813           7.500
         8.750
   6125084.591 6   4769143.979 6  23599632.610    23599639.056          13.500
        13.250
  12977596.553 6  10109545.726 6  22823437.962    22823444.763          18.250
        20.250
 99  3  2  3 36 30.0050000  0  4G 6G30G26G17
  19814509.804 6  15439880.249 6  21999157.954    21999164.122          18.500
        18.750
  31910563.536 5  24839391.921 5  25468063.118    25468070.837           7.500
         8.750
   6160731.167 6   4796920.557 6  23606416.056    23606422.454          13.750
        13.250
  13018309.789 6  10141270.346 6  22831185.415    22831192.341          18.000
        20.250
 99  3  2  3 36 45.0050000  0  4G 6G30G26G17
  19883056.052 6  15493292.905 6  22012201.884    22012208.091          18.500
        18.500
  32017957.579 5  24923075.555 5  25488499.720    25488507.505           7.500
         8.750
   6196498.590 6   4824791.293 6  23613222.259    23613228.571          13.750
        13.250
  13059058.946 6  10173022.953 6  22838939.571    22838946.563          18.000
        20.250
 99  3  2  3 37  0.0050000  0  4G 6G30G26G17
  19951723.890 6  15546800.314 6  22025268.978    22025275.122          18.500
        18.750
  32125357.826 5  25006764.037 5  25508937.134    25508945.110           7.500
         9.000
   6232391.534 6   4852759.842 6  23620052.603    23620058.829          14.000
        13.250
  13099841.145 6  10204801.311 6  22846700.056    22846706.946          18.000
        20.250
 99  3  2  3 37 15.0050000  0  4G 6G30G26G17
  20020511.417 6  15600400.985 6  22038358.798    22038365.036          18.500
        18.500
  32232757.237 5  25090451.842 5  25529374.688    25529382.688           7.500
         9.000
   6268413.159 6   4880828.658 6  23626907.188    23626913.528          13.750
        13.250
  13140653.932 6  10236603.498 6  22854466.462    22854473.388          18.000
        20.250
 99  3  2  3 37 30.0050000  0  4G 6G30G26G17
  20089415.840 6  15654092.739 6  22051470.876    22051477.032          18.500
        18.750
  32340149.069 4  25174133.753 5  25549810.524    25549818.700           7.250
         9.250
   6304564.966 6   4908998.921 6  23633786.618    23633792.962          14.000
        13.250
  13181494.190 6  10268427.092 6  22862238.181    22862245.032          18.000
        20.000
 99  3  2  3 37 45.0050000  0  4G 6G30G26G17
  20158438.750 6  15707876.829 6  22064605.478    22064611.614          18.500
        18.500
  32447539.518 4  25257814.586 5  25570246.228    25570254.255           7.250
         9.000
   6340853.029 6   4937275.354 6  23640692.071    23640698.341          14.000
        13.500
  13222363.711 6  10300273.480 6  22870015.478    22870022.427          18.000
        20.250
 99  3  2  3 38  0.0050000  0  4G 6G30G26G17
  20227578.845 6  15761752.224 6  22077762.353    22077768.571          18.250
        18.750
  32554925.444 4  25341491.893 5  25590681.149    25590689.376           7.000
         9.000
   6377275.781 6   4965656.739 6  23647623.063    23647629.298          14.000
        13.500
  13263259.273 6  10332140.168 6  22877797.540    22877804.333          17.750
        20.000
 99  3  2  3 38 15.0050000  0  4G 6G30G26G17
  20296839.279 6  15815721.390 6  22090942.243    22090948.388          18.250
        18.500
  32662305.759 4  25425164.838 5  25611114.907    25611123.048           6.750
         9.000
   6413832.834 6   4994142.769 6  23654579.563    23654585.864          14.000
        13.250
  13304184.287 6  10364029.800 6  22885585.399    22885592.278          17.750
        20.000
 99  3  2  3 38 30.0050000  0  4G 6G30G26G17
  20366223.538 6  15869787.046 6  22104145.470    22104151.728          18.000
        18.750
  32769681.926 4  25508834.546 5  25631548.095    25631556.200           7.000
         8.500
   6450522.892 6   5022732.448 6  23661561.321    23661567.446          14.000
        13.500
  13345141.941 6  10395944.869 6  22893379.267    22893386.130          17.750
        20.250
 99  3  2  3 38 45.0050000  0  4G 6G30G26G17
  20435730.677 6  15923948.455 6  22117372.165    22117378.399          18.000
        18.750
  32877055.564 4  25592502.279 5  25651980.384    25651988.739           6.500
         8.750
   6487345.016 6   5051425.030 6  23668568.431    23668574.712          14.000
        13.500
  13386135.997 6  10427888.307 6  22901180.087    22901186.923          17.750
        20.250
 99  3  2  3 39  0.0050000  0  4G 6G30G26G17
  20505356.568 6  15978202.394 6  22130621.571    22130627.767          18.000
        18.750
  32984427.388 4  25676168.583 5  25672412.563    25672420.923           6.250
         8.500
   6524296.359 6   5080218.297 6  23675599.946    23675606.263          14.000
        13.500
  13427168.491 6  10459861.691 6  22908988.392    22908995.208          17.750
        20.250
 99  3  2  3 39 15.0050000  0  4G 6G30G26G17
  20575098.152 6  16032546.487 6  22143893.071    22143899.196          18.000
        18.750
  33091798.584 4  25759834.422 5  25692844.907    25692853.134           6.250
         8.750
   6561374.176 6   5109110.127 6  23682655.728    23682662.020          14.000
        13.500
  13468243.252 6  10491868.013 6  22916804.540    22916811.442          17.750
        20.250
 99  3  2  3 39 30.0050000  0  4G 6G30G26G17
  20644951.215 6  16086977.443 6  22157185.540    22157191.770          18.000
        18.750
  33199167.347 4  25843498.359 5  25713276.478    25713284.735           6.500
         8.500
   6598573.210 6   5138096.411 6  23689734.415    23689740.794          14.000
        13.500
  13509360.381 6  10523907.356 6  22924628.868    22924635.712          17.750
        20.250
 99  3  2  3 39 45.0050000  0  4G 6G30G26G17
  20714921.579 6  16141499.805 6  22170500.345    22170506.673          18.000
        18.750
  33306543.000 4  25927167.654 5  25733709.485    25733717.442           6.500
         8.250
   6635894.323 6   5167177.812 6  23696836.267    23696842.645          14.000
        13.750
  13550525.881 6  10555984.382 6  22932462.454    22932469.302          17.750
        20.250
 99  3  2  3 40  0.0060000  0  4G 6G30G26G17
  20785013.828 6  16196117.142 6  22183838.779    22183844.967          18.250
        18.750
  33413934.172 4  26010849.049 5  25754145.404    25754153.635           6.750
         8.000
   6673336.994 6   5196353.935 6  23703961.232    23703967.662          14.000
        13.500
  13591740.997 6  10588100.074 6  22940305.420    22940312.303          17.500
        20.250
 99  3  2  3 40 15.0060000  0  4G 6G30G26G17
  20855218.627 6  16250822.186 6  22197198.248    22197204.396          18.250
        18.750
  33521321.940 4  26094527.799 5  25774580.600    25774588.775           6.750
         8.000
   6710894.417 6   5225619.475 6  23711108.334    23711114.658          14.000
        14.000
  13633000.776 6  10620250.567 6  22948156.873    22948163.682          17.750
        20.250
 99  3  2  3 40 30.0060000  0  4G 6G30G26G17
  20925540.133 6  16305618.159 6  22210579.896    22210586.045          18.250
        18.750
  33628714.016 4  26178209.896 5  25795016.771    25795024.752           6.500
         8.000
   6748568.746 6   5254976.116 6  23718277.365    23718283.678          13.750
        14.000
  13674307.410 6  10652437.570 6  22956017.264    22956024.213          17.750
        20.500
 99  3  2  3 40 45.0060000  0  4G 6G30G26G17
  20995976.282 6  16360503.474 6  22223983.529    22223989.682          18.250
        19.000
  33736109.307 4  26261894.490 5  25815453.303    25815461.322           6.500
         8.000
   6786363.134 6   5284426.304 6  23725469.607    23725475.807          13.750
        14.000
  13715661.502 6  10684661.552 6  22963886.553    22963893.381          17.750
        20.500
 99  3  2  3 41  0.0060000  0  4G 6G30G26G17
  21066525.906 6  16415477.202 6  22237408.709    22237414.869          18.500
        19.000
  33843506.099 4  26345580.273 5  25835890.318    25835898.248           6.500
         7.750
   6824280.465 6   5313972.302 6  23732685.053    23732691.299          13.750
        14.250
  13757061.002 6  10716920.914 6  22971764.740    22971771.557          17.750
        20.500
 99  3  2  3 41 15.0060000  0  4G 6G30G26G17
  21137190.270 6  16470540.344 6  22250855.732    22250861.904          18.500
        19.000
  33950899.312 4  26429263.260 5  25856326.748    25856334.764           6.500
         7.750
   6862322.868 6   5343615.745 6  23739924.248    23739930.416          13.500
        14.000
  13798503.035 6  10749213.421 6  22979650.920    22979657.822          17.750
        20.500
 99  3  2  3 41 30.0060000  0  4G 6G30G26G17
  21207975.056 6  16525697.319 6  22264325.443    22264331.514          18.500
        19.000
  34058288.975 4  26512943.490 5  25876762.029    25876770.084           6.500
         7.500
   6900494.738 6   5373360.083 6  23747188.061    23747194.357          13.250
        14.000
  13839986.970 6  10781538.577 6  22987545.006    22987551.978          17.750
        20.500
 99  3  2  3 41 45.0060000  0  4G 6G30G26G17
  21278879.196 6  16580947.298 6  22277818.154    22277824.295          18.250
        18.750
  34165672.142 4  26596618.643 5  25897196.545    25897204.459           6.500
         7.500
   6938795.802 6   5403205.086 6  23754476.350    23754482.580          13.250
        14.000
  13881508.252 6  10813892.828 6  22995446.186    22995453.119          18.000
        21.000
 99  3  2  3 42  0.0060000  0  4G 6G30G26G17
  21349902.006 6  16636289.748 6  22291333.311    22291339.428          18.500
        19.000
  34273046.344 4  26680286.819 5  25917629.186    25917637.342           6.500
         7.500
   6977226.009 6   5433150.724 6  23761789.436    23761795.799          13.500
        13.750
  13923062.443 6  10846272.736 6  23003353.779    23003360.580          17.750
        21.000
 99  3  2  3 42 15.0060000  0  4G 6G30G26G17
  21421048.424 6  16691728.515 6  22304872.178    22304878.228          18.750
        19.000
  34380412.182 4  26763948.479 5  25938060.475    25938068.256           6.500
         7.250
   7015793.171 6   5463203.080 6  23769128.600    23769134.803          13.250
        13.750
  13964655.776 6  10878683.138 6  23011268.795    23011275.693          18.000
        21.000
 99  3  2  3 42 30.0060000  0  4G 6G30G26G17
  21492317.410 6  16747262.789 6  22318434.217    22318440.314          18.750
        19.000
  34487767.867 3  26847602.226 5  25958489.443    25958497.400           6.000
         7.250
   7054495.770 6   5493360.974 6  23776493.256    23776499.639          13.500
        14.000
  14006287.390 6  10911123.372 6  23019190.943    23019197.822          18.000
        20.750
 99  3  2  3 42 45.0060000  0  4G 6G30G26G17
  21563707.487 6  16802891.421 6  22332019.271    22332025.279          18.750
        19.000
  34595112.466 3  26931247.333 5  25978916.178    25978924.334           6.000
         7.250
   7093333.785 6   5523624.375 6  23783884.037    23783890.279          13.500
        14.000
  14047955.681 6  10943592.181 6  23027120.139    23027126.975          17.750
        21.000
 99  3  2  3 43  0.0060000  0  4G 6G30G26G17
  21635217.944 6  16858613.861 6  22345627.232    22345633.311          18.750
        19.000
  34702443.491 4  27014881.863 5  25999340.975    25999348.850           6.250
         7.000
   7132307.204 6   5553993.298 6  23791300.326    23791306.506          13.500
        14.250
  14089658.628 6  10976087.997 6  23035055.951    23035062.908          18.000
        21.000
 99  3  2  3 43 15.0060000  0  4G 6G30G26G17
  21706856.871 6  16914436.394 6  22359259.756    22359265.728          18.750
        19.250
  34809766.371 3  27098510.044 5  26019764.037    26019771.459           6.000
         6.750
   7171421.349 6   5584471.873 6  23798743.490    23798749.646          13.500
        14.000
  14131399.035 6  11008612.997 6  23042998.990    23043005.900          17.750
        21.000
 99  3  2  3 43 30.0060000  0  4G 6G30G26G17
  21778626.532 6  16970360.811 6  22372917.053    22372923.045          19.000
        19.250
  34917082.869 3  27182133.267 5  26040185.561    26040193.404           5.750
         6.750
   7210678.683 6   5615062.020 6  23806213.920    23806220.119          13.250
        14.000
  14173179.598 6  11041169.292 6  23050949.451    23050956.271          18.000
        21.000
 99  3  2  3 43 45.0060000  0  4G 6G30G26G17
  21850520.634 6  17026382.195 6  22386598.006    22386604.045          19.000
        19.500
  35024388.935 3  27265748.343 5  26060605.350    26060613.064           6.000
         6.750
   7250074.909 6   5645760.407 6  23813710.686    23813716.936          13.250
        14.000
  14214996.824 6  11073754.160 6  23058906.998    23058913.791          18.000
        21.000
 99  3  2  3 44  0.0060000  0  4G 6G30G26G17
  21922539.859 6  17082501.064 6  22400302.771    22400308.830          19.000
        19.250
  35131683.236 4  27349354.266 5  26081022.732    26081030.572           6.250
         6.750
   7289610.410 6   5676567.307 6  23821234.053    23821240.271          13.250
        14.000
  14256852.551 6  11106369.020 6  23066871.811    23066878.576          17.750
        21.250
 99  3  2  3 44 15.0060000  0  4G 6G30G26G17
  21994685.323 6  17138718.310 6  22414031.709    22414037.775          19.000
        19.500
  35238966.126 4  27432951.305 5  26101438.139    26101445.846           6.250
         6.750
   7329287.098 6   5707484.221 6  23828784.311    23828790.541          13.500
        14.000
  14298749.286 6  11139015.840 6  23074844.498    23074851.346          17.750
        21.250
 99  3  2  3 44 30.0060000  0  4G 6G30G26G17
  22066956.755 6  17195033.711 6  22427784.514    22427790.654          19.250
        19.500
  35346239.613 3  27516540.967 5  26121851.498    26121859.127           5.750
         6.750
   7369108.382 6   5738513.820 6  23836362.068    23836368.311          13.500
        14.250
  14340690.018 6  11171696.935 6  23082825.506    23082832.443          17.750
        21.000
 99  3  2  3 44 45.0060000  0  4G 6G30G26G17
  22139352.164 6  17251445.720 6  22441560.779    22441566.912          19.250
        19.250
  35453504.159 3  27600123.723 5  26142263.209    26142271.158           6.000
         6.750
   7409072.621 6   5769654.797 6  23843966.850    23843973.025          13.250
        14.250
  14382671.582 6  11204409.856 6  23090814.295    23090821.154          17.750
        21.250
 99  3  2  3 45  0.0060000  0  4G 6G30G26G17
  22211870.515 6  17307953.528 6  22455360.686    22455366.779          19.000
        19.250
  35560758.197 3  27683698.267 5  26162672.732    26162681.162           6.000
         6.750
   7449180.797 6   5800907.936 6  23851599.318    23851605.627          13.500
        14.500
  14424694.835 6  11237155.265 6  23098811.131    23098818.049          17.750
        21.250
 99  3  2  3 45 15.0060000  0  4G 6G30G26G17
  22284514.154 6  17364558.959 6  22469184.240    22469190.307          19.250
        19.500
  35668006.567 3  27767268.379 5  26183081.639    26183089.631           5.500
         7.000
   7489434.395 6   5832274.401 6  23859259.318    23859265.490          13.500
        14.250
  14466762.734 6  11269935.450 6  23106816.326    23106823.252          17.750
        21.250
 99  3  2  3 45 30.0060000  0  4G 6G30G26G17
  22357283.249 6  17421262.154 6  22483031.826    22483037.924          19.250
        19.500
  35775251.317 3  27850835.682 5  26203489.693    26203497.787           5.750
         7.250
   7529832.545 6   5863753.491 6  23866946.756    23866952.955          13.750
        14.000
  14508879.049 6  11302753.373 6  23114830.795    23114837.568          18.000
        21.250
 99  3  2  3 45 45.0060000  0  4G 6G30G26G17
  22430175.544 6  17478061.343 6  22496902.826    22496908.838          19.250
        19.500
  35882492.035 3  27934399.838 5  26223897.107    26223905.025           5.750
         7.250
   7570373.215 6   5895343.648 6  23874661.412    23874667.486          13.500
        14.250
  14551043.462 6  11335608.773 6  23122854.334    23122861.217          17.750
        21.250
 99  3  2  3 46  0.0060000  0  4G 6G30G26G17
  22503188.249 6  17534954.363 6  22510796.584    22510802.662          19.250
        19.750
  35989727.518 3  28017959.944 5  26244303.146    26244310.994           6.000
         7.250
   7611052.161 6   5927041.549 6  23882402.443    23882408.385          13.500
        14.250
  14593254.264 6  11368500.325 6  23130886.896    23130893.725          17.750
        21.250
 99  3  2  3 46 15.0060000  0  4G 6G30G26G17
  22576319.781 6  17591939.976 6  22524713.115    22524719.287          19.250
        19.500
  36096957.635 3  28101515.824 5  26264708.475    26264716.432           6.000
         7.250
   7651866.405 6   5958844.869 6  23890169.006    23890175.154          13.500
        14.000
  14635508.082 6  11401425.384 6  23138927.553    23138934.287          18.000
        21.250
 99  3  2  3 46 30.0060000  0  4G 6G30G26G17
  22649565.773 6  17649014.767 6  22538651.232    22538657.353          19.250
        19.750
  36204183.547 3  28185068.465 5  26285113.045    26285120.971           6.000
         7.000
   7692815.601 6   5990753.350 6  23897961.334    23897967.451          13.500
        14.000
  14677805.415 6  11434384.354 6  23146976.498    23146983.346          18.000
        21.250
 99  3  2  3 46 45.0060000  0  4G 6G30G26G17
  22722925.892 6  17706178.496 6  22552611.240    22552617.455          19.000
        19.500
  36311405.632 4  28268618.114 5  26305516.732    26305524.525           6.250
         7.250
   7733896.686 6   6022764.609 6  23905778.943    23905785.088          13.750
        14.000
  14720146.905 6  11467377.740 6  23155033.850    23155040.568          18.250
        21.250
 99  3  2  3 47  0.0070000  0  4G 6G30G26G17
  22796409.389 6  17763438.364 6  22566594.729    22566600.800          19.250
        19.750
  36418632.634 4  28352171.582 5  26325921.526    26325929.370           6.250
         7.250
   7775113.035 6   6054881.268 6  23913622.136    23913628.222          14.000
        14.250
  14762538.026 6  11500409.788 6  23163100.542    23163107.288          18.250
        21.500
 99  3  2  3 47 15.0070000  0  4G 6G30G26G17
  22870006.355 6  17820786.652 6  22580599.698    22580605.815          19.250
        19.500
  36525852.170 4  28435719.240 5  26346324.714    26346332.315           6.250
         7.500
   7816459.961 6   6087099.675 6  23921490.089    23921496.147          13.750
        14.000
  14804972.707 6  11533475.791 6  23171175.472    23171182.194          18.250
        21.500
 99  3  2  3 47 30.0070000  0  4G 6G30G26G17
  22943723.386 6  17878228.491 6  22594627.612    22594633.604          19.250
        19.750
  36633072.921 4  28519267.828 5  26366728.370    26366736.050           6.500
         7.500
   7857941.664 6   6119423.094 6  23929383.940    23929389.964          13.750
        14.000
  14847452.649 6  11566577.055 6  23179259.417    23179266.073          18.500
        21.500
 99  3  2  3 47 45.0070000  0  4G 6G30G26G17
  23017563.137 6  17935765.953 6  22608678.792    22608684.940          19.250
        19.750
  36740293.285 4  28602816.127 5  26387131.464    26387139.358           6.500
         7.500
   7899564.630 6   6151856.590 6  23937304.464    23937310.565          14.000
        14.000
  14889979.964 6  11599715.234 6  23187351.995    23187358.745          18.750
        21.500
 99  3  2  3 48  0.0070000  0  4G 6G30G26G17
  23091526.776 6  17993399.960 6  22622753.667    22622759.726          19.000
        19.500
  36847515.116 4  28686365.575 5  26407535.472    26407543.358           6.500
         7.750
   7941331.801 6   6184402.458 6  23945252.409    23945258.413          14.000
        14.250
  14932553.417 6  11632889.364 6  23195453.425    23195460.159          18.500
        21.500
 99  3  2  3 48 15.0070000  0  4G 6G30G26G17
  23165609.021 6  18051126.378 6  22636851.097    22636857.214          19.000
        19.500
  36954733.263 4  28769912.152 5  26427938.378    26427946.038           6.500
         7.750
   7983238.347 6   6217056.926 6  23953226.964    23953232.956          14.000
        14.250
  14975166.442 6  11666094.331 6  23203562.456    23203569.151          18.500
        21.750
 99  3  2  3 48 30.0070000  0  4G 6G30G26G17
  23239814.420 6  18108948.770 6  22650971.894    22650977.983          19.250
        19.750
  37061951.717 4  28853458.946 5  26448341.425    26448349.241           6.500
         7.750
   8025289.766 6   6249824.289 6  23961229.026    23961235.077          14.000
        14.000
  15017822.594 6  11699332.908 6  23211679.644    23211686.327          18.750
        21.750
 99  3  2  3 48 45.0070000  0  4G 6G30G26G17
  23314145.415 6  18166869.023 6  22665116.526    22665122.636          19.250
        19.750
  37169171.040 4  28937006.443 5  26468744.558    26468752.284           6.250
         7.500
   8067486.914 6   6282705.202 6  23969258.909    23969264.948          14.000
        14.000
  15060523.364 6  11732606.254 6  23219805.300    23219811.979          18.750
        21.500
 99  3  2  3 49  0.0070000  0  4G 6G30G26G17
  23388603.025 6  18224887.943 6  22679285.401    22679291.468          19.000
        19.750
  37276388.675 4  29020552.620 5  26489147.206    26489155.261           6.250
         7.500
   8109827.260 6   6315697.710 6  23977316.019    23977322.038          14.000
        14.000
  15103262.994 6  11765909.870 6  23227938.347    23227945.124          18.500
        21.500
 99  3  2  3 49 15.0070000  0  4G 6G30G26G17
  23463189.054 6  18283006.927 6  22693478.753    22693484.726          19.000
        19.750
  37383607.166 4  29104099.455 5  26509550.292    26509558.214           6.250
         7.250
   8152316.899 6   6348806.531 6  23985401.386    23985407.390          14.000
        14.000
  15146041.423 6  11799243.730 6  23236078.761    23236085.495          18.500
        21.500
 99  3  2  3 49 30.0070000  0  4G 6G30G26G17
  23537907.144 6  18341228.816 6  22707697.104    22707703.061          19.250
        19.750
  37490825.987 4  29187646.569 5  26529953.597    26529961.280           6.250
         7.000
   8194956.498 6   6382032.223 6  23993515.347    23993521.296          14.250
        14.000
  15188860.543 6  11832609.292 6  23244226.862    23244233.714          18.500
        21.500
 99  3  2  3 49 45.0070000  0  3G 6G26G17
  23612754.520 6  18399551.440 6  22721940.175    22721946.171          19.000
        19.750
   8237741.550 6   6415371.241 6  24001657.097    24001663.022          14.250
        14.000
  15231718.971 6  11866005.480 6  23252382.464    23252389.319          18.500
        21.500
 99  3  2  3 50  0.0070000  0  3G 6G26G17
  23687734.424 6  18457977.337 6  22736208.128    22736214.229          19.250
        20.000
   8280672.671 6   6448824.081 6  24009826.690    24009832.608          14.250
        14.000
  15274619.851 6  11899434.755 6  23260546.394    23260553.218          18.750
        21.500
 99  3  2  3 50 15.0070000  0  3G 6G26G17
  23762845.093 6  18516505.134 6  22750501.300    22750507.460          19.250
        20.000
   8323743.990 6   6482386.176 6  24018022.901    24018028.819          14.250
        14.250
  15317561.095 6  11932895.474 6  23268717.769    23268724.616          18.500
        21.500
 99  3  2  3 50 30.0070000  0  3G 6G26G17
  23838087.770 6  18575135.787 6  22764819.511    22764825.683          18.750
        20.250
   8366957.047 6   6516058.709 6  24026245.933    24026251.999          14.000
        14.250
  15360546.221 6  11966390.395 6  23276897.534    23276904.241          18.500
        21.500
 99  3  2  3 50 45.0070000  0  3G 6G26G17
  23913463.716 6  18633870.289 6  22779163.112    22779169.097          19.250
        20.000
   8410315.958 6   6549844.889 6  24034496.886    24034502.788          14.500
        14.500
  15403580.504 6  11999923.613 6  23285086.776    23285093.382          18.750
        21.250
 99  3  2  3 51  0.0070000  0  3G 6G26G17
  23988971.539 6  18692707.547 6  22793531.769    22793537.796          19.250
        20.000
   8453821.468 6   6583745.309 6  24042775.737    24042781.542          14.500
        14.250
  15446662.468 6  12033493.983 6  23293284.956    23293291.651          18.750
        21.250
 99  3  2  3 51 15.0070000  0  3G 6G26G17
  24064610.051 6  18751646.649 6  22807925.261    22807931.265          19.500
        20.000
   8497472.946 6   6617759.464 6  24051082.214    24051088.222          14.500
        14.250
  15489793.066 6  12067102.261 6  23301492.534    23301499.097          18.750
        21.000
 99  3  2  3 51 30.0070000  0  3G 6G26G17
  24140377.250 6  18810686.025 6  22822343.425    22822349.413          19.500
        20.000
   8541267.657 6   6651885.225 6  24059416.097    24059422.015          14.500
        14.500
  15532974.168 6  12100749.883 6  23309709.433    23309716.026          18.750
        21.000
 99  3  2  3 51 45.0070000  0  3G 6G26G17
  24216273.245 6  18869825.766 6  22836785.894    22836791.987          19.250
        20.250
   8585206.469 6   6686123.283 6  24067777.401    24067783.269          14.500
        14.500
  15576208.330 6  12134438.858 6  23317936.565    23317943.237          18.750
        21.000
 99  3  2  3 52  0.0070000  0  3G 6G26G17
  24292299.492 6  18929066.999 6  22851253.214    22851259.249          19.000
        20.250
   8629295.667 6   6720478.521 6  24076167.222    24076173.101          14.500
        14.500
  15619497.816 6  12168170.934 6  23326174.284    23326180.905          18.750
        20.750
 99  3  2  3 52 15.0070000  0  3G 6G26G17
  24368447.545 6  18988403.146 6  22865743.644    22865749.729          19.250
        20.250
   8673528.990 6   6754946.056 6  24084584.534    24084590.686          14.500
        14.500
  15662835.865 6  12201940.861 6  23334421.378    23334427.933          19.250
        20.750
 99  3  2  3 52 30.0070000  0  3G 6G26G17
  24444713.895 6  19047831.478 6  22880256.690    22880262.800          19.250
        20.500
   8717904.616 6   6789524.490 6  24093028.862    24093034.921          14.500
        14.750
  15706219.233 6  12235746.097 6  23342676.823    23342683.507          18.750
        21.000
 99  3  2  3 52 45.0070000  0  3G 6G26G17
  24521100.676 6  19107353.647 6  22894792.534    22894798.671          19.000
        20.750
   8762426.728 6   6824217.062 6  24101501.089    24101507.206          14.500
        14.750
  15749650.574 6  12269588.711 6  23350941.503    23350948.194          18.750
        21.000
 99  3  2  3 53  0.0070000  0  3G 6G26G17
  24597610.240 6  19166971.489 6  22909351.761    22909357.776          18.750
        20.250
   8807092.949 6   6859021.927 6  24110000.933    24110006.917          14.500
        14.750
  15793128.925 6  12303467.964 6  23359215.315    23359221.811          19.000
        20.500
 99  3  2  3 53 15.0070000  0  3G 6G26G17
  24674244.529 6  19226686.508 6  22923934.761    22923940.811          18.750
        20.500
   8851900.997 6   6893937.303 6  24118527.495    24118533.499          14.500
        14.750
  15836653.201 6  12337382.999 6  23367497.722    23367504.331          19.000
        20.500
 99  3  2  3 53 30.0070000  0  3G 6G26G17
  24750996.696 6  19286493.396 6  22938540.362    22938546.511          18.750
        20.500
   8896839.624 6   6928954.440 6  24127079.089    24127085.104          14.500
        15.000
  15880215.064 6  12371327.323 6  23375787.120    23375793.675          19.000
        20.500
 99  3  2  3 53 45.0070000  0  3G 6G26G17
  24827868.578 6  19346393.563 6  22953168.511    22953174.663          18.750
        20.500
   8941914.525 6   6964077.751 6  24135656.636    24135662.690          14.500
        15.000
  15923816.134 6  12405302.201 6  23384084.159    23384090.694          19.250
        20.500
 99  3  2  3 54  0.0080000  0  3G 6G26G17
  24904865.699 6  19406391.318 6  22967820.594    22967826.750          18.750
        20.500
   8987134.672 6   6999314.249 6  24144261.820    24144267.914          14.750
        15.000
  15967460.519 6  12439310.823 6  23392389.477    23392395.867          19.250
        20.500
 99  3  2  3 54 15.0080000  0  3G 6G26G17
  24981977.982 6  19466478.813 6  22982494.609    22982500.750          18.750
        20.500
   9032494.665 6   7034659.717 6  24152893.437    24152899.512          14.750
        15.000
  16011143.305 6  12473349.378 6  23400701.977    23400708.355          19.250
        20.250
 99  3  2  3 54 30.0080000  0  3G 6G26G17
  25059212.305 6  19526661.405 6  22997191.805    22997197.918          18.750
        20.500
   9077999.976 6   7070118.414 6  24161552.805    24161558.863          14.750
        15.000
  16054869.130 6  12507421.458 6  23409022.789    23409029.152          19.250
        20.250
 99  3  2  3 54 45.0080000  0  3G 6G26G17
  25136568.815 6  19586939.202 6  23011912.203    23011918.430          18.500
        20.500
   9123653.082 6   7105692.275 6  24170240.258    24170246.312          14.750
        15.250
  16098637.377 6  12541526.607 6  23417351.484    23417357.898          19.250
        20.250
 99  3  2  3 55  0.0080000  0  3G 6G26G17
  25214050.543 6  19647314.574 6  23026656.477    23026662.695          18.500
        20.250
   9169457.455 6   7141384.010 6  24178956.625    24178962.586          14.750
        15.250
  16142451.586 6  12575667.562 6  23425689.141    23425695.535          19.250
        20.250
 99  3  2  3 55 15.0080000  0  3G 6G26G17
  25291654.939 6  19707785.538 6  23041424.109    23041430.344          18.250
        20.500
   9215412.427 6   7177193.095 6  24187701.711    24187707.664          14.750
        15.250
  16186307.107 6  12609840.716 6  23434034.562    23434040.840          19.500
        20.500
 99  3  2  3 55 30.0080000  0  3G 6G26G17
  25369378.950 6  19768349.694 6  23056214.508    23056220.723          18.250
        20.500
   9261520.372 6   7213121.378 6  24196475.625    24196481.668          14.750
        15.250
  16230204.133 6  12644046.205 6  23442387.930    23442394.340          19.250
        20.250
 99  3  2  3 55 45.0080000  0  3G 6G26G17
  25447221.158 6  19829005.960 6  23071027.367    23071033.535          18.250
        20.500
   9307787.975 6   7249174.069 6  24205280.055    24205286.027          14.750
        15.500
  16274145.974 6  12678286.618 6  23450749.781    23450756.055          19.500
        20.250
 99  3  2  3 56  0.0080000  0  3G 6G26G17
  25525182.516 6  19889755.070 6  23085862.937    23085869.168          18.000
        20.500
   9354220.459 6   7285355.244 6  24214115.945    24214121.848          14.750
        15.500
  16318135.162 6  12712563.921 6  23459120.578    23459126.777          19.500
        20.250
 99  3  2  3 56 15.0080000  0  3G 6G26G17
  25603262.936 6  19950596.955 6  23100721.031    23100727.348          18.000
        20.500
   9400814.353 6   7321662.186 6  24222982.406    24222988.340          14.750
        15.250
  16362169.427 6  12746876.344 6  23467499.922    23467506.227          19.500
        20.500
 99  3  2  3 56 30.0080000  0  3G 6G26G17
  25681463.278 6  20011532.286 6  23115602.156    23115608.320          18.250
        20.250
   9447563.797 6   7358090.344 6  24231878.203    24231884.305          14.250
        15.500
  16406245.523 6  12781221.371 6  23475887.344    23475893.582          19.250
        20.250
 99  3  2  3 56 45.0080000  0  3G 6G26G17
  25759785.225 6  20072562.371 6  23130506.258    23130512.477          18.000
        20.250
   9494467.827 6   7394638.948 6  24240803.820    24240809.891          14.500
        15.500
  16450362.657 6  12815598.378 6  23484282.602    23484289.016          19.250
        20.500
 99  3  2  3 57  0.0080000  0  3G 6G26G17
  25838229.486 6  20133687.766 6  23145433.664    23145439.957          17.750
        20.500
   9541523.798 6   7431305.953 6  24249758.328    24249764.430          14.500
        15.750
  16494522.466 6  12850008.635 6  23492685.953    23492692.312          19.750
        20.500
 99  3  2  3 57 15.0080000  0  3G 6G26G17
  25916794.468 6  20194907.230 6  23160384.109    23160390.391          18.000
        20.000
   9588726.695 6   7468087.446 6  24258740.750    24258746.781          14.500
        15.750
  16538723.206 6  12884450.778 6  23501097.055    23501103.375          19.250
        20.500
 99  3  2  3 57 30.0080000  0  3G 6G26G17
  25995478.693 6  20256219.611 6  23175357.312    23175363.555          18.000
        20.250
   9636074.467 6   7504981.832 6  24267750.766    24267756.777          14.250
        15.750
  16582966.797 6  12918926.323 6  23509516.375    23509522.641          19.250
        20.500
 99  3  2  3 57 45.0080000  0  3G 6G26G17
  26074281.799 6  20317624.628 6  23190352.883    23190359.187          17.750
        20.000
   9683564.053 6   7541986.710 6  24276787.609    24276793.680          14.250
        15.500
  16627254.017 6  12953435.859 6  23517943.914    23517950.195          19.250
        20.750
 99  3  2  3 58  0.0080000  0  3G 6G26G17
  26153210.257 6  20379127.316 6  23205372.391    23205378.633          18.000
        20.250
   9731197.717 6   7579103.870 6  24285852.070    24285858.070          14.250
        15.750
  16671586.321 6  12987980.530 6  23526379.969    23526386.340          19.250
        20.750
 99  3  2  3 58 15.0080000  0  3G 6G26G17
  26232263.349 6  20440727.129 6  23220415.781    23220422.004          18.000
        20.000
   9778967.962 6   7616327.457 6  24294942.328    24294948.469          14.000
        15.750
  16715959.328 6  13022556.919 6  23534823.992    23534830.215          19.500
        21.000
 99  3  2  3 58 30.0080000  0  3G 6G26G17
  26311438.646 6  20502422.158 6  23235482.219    23235488.539          17.750
        20.000
   9826870.734 6   7653654.298 6  24304057.891    24304064.152          14.000
        15.750
  16760371.990 6  13057164.199 6  23543275.437    23543281.844          19.250
        21.250
 99  3  2  3 58 45.0080000  0  3G 6G26G17
  26390734.960 6  20564211.499 6  23250571.844    23250578.047          17.750
        19.750
   9874906.688 6   7691084.926 6  24313198.836    24313205.055          14.000
        15.500
  16804826.077 6  13091803.765 6  23551734.539    23551740.937          19.250
        21.000
 99  3  2  3 59  0.0080000  0  3G 6G26G17
  26470150.103 6  20626093.422 6  23265684.156    23265690.387          18.000
        19.750
   9923076.960 6   7728620.218 6  24322365.289    24322371.453          14.000
        15.750
  16849322.827 6  13126476.577 6  23560202.109    23560208.531          19.250
        21.500
 99  3  2  3 59 15.0080000  0  3G 6G26G17
  26549682.919 6  20688067.047 6  23280818.766    23280825.047          17.750
        19.750
   9971381.843 6   7766260.401 6  24331557.523    24331563.543          14.500
        15.750
  16893862.002 6  13161182.435 6  23568677.547    23568683.973          19.250
        21.250
 99  3  2  3 59 30.0080000  0  3G 6G26G17
  26629330.867 6  20750130.377 6  23295975.187    23295981.426          17.750
        19.750
  10019821.451 6   7804005.563 6  24340775.219    24340781.199          14.500
        15.750
  16938441.131 6  13195919.439 6  23577160.781    23577167.055          19.250
        21.250
 99  3  2  3 59 45.0080000  0  3G 6G26G17
  26709096.405 6  20812285.342 6  23311154.039    23311160.277          18.000
        19.750
  10068402.034 6   7841860.578 6  24350019.852    24350025.789          14.250
        15.750
  16983059.965 6  13230687.376 6  23585651.289    23585657.828          19.000
        21.500
